Observation data for Big Lake on 10/14/2019      Previous  Date       Current Mesonet Observations  Soil Data  Daily Summary Page  Observations in Plain Language
KBI1 140500Z 17010KT 17/06 A3003 RMK A01 T01730055  RH  046%=      5-min Rain = 0
KBI1 140501Z 17009KT 17/06 A3003 RMK A01 T01720055  RH  046%=      5-min Rain = 0
KBI1 140502Z 17009KT 17/06 A3003 RMK A01 T01730055  RH  046%=      5-min Rain = 0
KBI1 140503Z 17010KT 17/06 A3003 RMK A01 T01720055  RH  046%=      5-min Rain = 0
KBI1 140504Z 17010KT 17/06 A3003 RMK A01 T01730055  RH  046%=      5-min Rain = 0
KBI1 140505Z 17011KT 17/06 A3003 RMK A01 T01730055  RH  046%=      5-min Rain = 0
KBI1 140506Z 17009KT 17/06 A3003 RMK A01 T01730055  RH  046%=      5-min Rain = 0
KBI1 140507Z 17010KT 17/06 A3003 RMK A01 T01730055  RH  046%=      5-min Rain = 0
KBI1 140508Z 17009KT 17/06 A3002 RMK A01 T01720055  RH  046%=      5-min Rain = 0
KBI1 140509Z 17009KT 17/06 A3002 RMK A01 T01720055  RH  046%=      5-min Rain = 0
KBI1 140510Z 17010KT 17/06 A3002 RMK A01 T01720055  RH  046%=      5-min Rain = 0
KBI1 140511Z 17010KT 17/06 A3002 RMK A01 T01720055  RH  046%=      5-min Rain = 0
KBI1 140512Z 17009KT 17/06 A3002 RMK A01 T01720055  RH  046%=      5-min Rain = 0
KBI1 140513Z 17009KT 17/06 A3002 RMK A01 T01720055  RH  046%=      5-min Rain = 0
KBI1 140514Z 17009KT 17/06 A3002 RMK A01 T01720056  RH  046%=      5-min Rain = 0
KBI1 140515Z 17008KT 17/06 A3002 RMK A01 T01720056  RH  046%=      5-min Rain = 0
KBI1 140516Z 17009KT 17/06 A3002 RMK A01 T01710056  RH  046%=      5-min Rain = 0
KBI1 140517Z 17008KT 17/06 A3002 RMK A01 T01710056  RH  047%=      5-min Rain = 0
KBI1 140518Z 17009KT 17/06 A3002 RMK A01 T01710056  RH  047%=      5-min Rain = 0
KBI1 140519Z 17008KT 17/06 A3002 RMK A01 T01710056  RH  047%=      5-min Rain = 0
KBI1 140520Z 17009KT 17/06 A3002 RMK A01 T01710056  RH  047%=      5-min Rain = 0
KBI1 140521Z 17009KT 17/06 A3002 RMK A01 T01710056  RH  047%=      5-min Rain = 0
KBI1 140522Z 17009KT 17/06 A3002 RMK A01 T01710056  RH  047%=      5-min Rain = 0
KBI1 140523Z 17008KT 17/06 A3002 RMK A01 T01710056  RH  047%=      5-min Rain = 0
KBI1 140524Z 17008KT 17/06 A3002 RMK A01 T01710056  RH  047%=      5-min Rain = 0
KBI1 140525Z 17008KT 17/06 A3002 RMK A01 T01700056  RH  047%=      5-min Rain = 0
KBI1 140526Z 17009KT 17/06 A3002 RMK A01 T01700056  RH  047%=      5-min Rain = 0
KBI1 140527Z 17009KT 17/06 A3002 RMK A01 T01700056  RH  047%=      5-min Rain = 0
KBI1 140528Z 17009KT 17/06 A3002 RMK A01 T01700057  RH  047%=      5-min Rain = 0
KBI1 140529Z 16009KT 17/06 A3002 RMK A01 T01700056  RH  047%=      5-min Rain = 0
KBI1 140530Z 17009KT 17/06 A3002 RMK A01 T01700057  RH  047%=      5-min Rain = 0
KBI1 140531Z 17008KT 17/06 A3002 RMK A01 T01700057  RH  047%=      5-min Rain = 0
KBI1 140532Z 17007KT 17/06 A3002 RMK A01 T01700057  RH  047%=      5-min Rain = 0
KBI1 140533Z 17007KT 17/06 A3002 RMK A01 T01690057  RH  047%=      5-min Rain = 0
KBI1 140534Z 17008KT 17/06 A3002 RMK A01 T01700057  RH  047%=      5-min Rain = 0
KBI1 140535Z 17008KT 17/06 A3002 RMK A01 T01700057  RH  047%=      5-min Rain = 0
KBI1 140536Z 17007KT 17/06 A3002 RMK A01 T01690057  RH  048%=      5-min Rain = 0
KBI1 140537Z 17007KT 17/06 A3002 RMK A01 T01690057  RH  048%=      5-min Rain = 0
KBI1 140538Z 17008KT 17/06 A3001 RMK A01 T01690057  RH  048%=      5-min Rain = 0
KBI1 140539Z 17008KT 17/06 A3001 RMK A01 T01690057  RH  048%=      5-min Rain = 0
KBI1 140540Z 17008KT 17/06 A3001 RMK A01 T01690057  RH  048%=      5-min Rain = 0
KBI1 140541Z 17009KT 17/06 A3001 RMK A01 T01680057  RH  048%=      5-min Rain = 0
KBI1 140542Z 17008KT 17/06 A3001 RMK A01 T01680057  RH  048%=      5-min Rain = 0
KBI1 140543Z 17009KT 17/06 A3001 RMK A01 T01690058  RH  048%=      5-min Rain = 0
KBI1 140544Z 17008KT 17/06 A3001 RMK A01 T01680057  RH  048%=      5-min Rain = 0
KBI1 140545Z 18008KT 17/06 A3001 RMK A01 T01680058  RH  048%=      5-min Rain = 0
KBI1 140546Z 18007KT 17/06 A3001 RMK A01 T01680057  RH  048%=      5-min Rain = 0
KBI1 140547Z 18009KT 17/06 A3001 RMK A01 T01680057  RH  048%=      5-min Rain = 0
KBI1 140548Z 18009KT 17/06 A3001 RMK A01 T01680058  RH  048%=      5-min Rain = 0
KBI1 140549Z 18008KT 17/06 A3001 RMK A01 T01680058  RH  048%=      5-min Rain = 0
KBI1 140550Z 18009KT 17/06 A3001 RMK A01 T01680058  RH  048%=      5-min Rain = 0
KBI1 140551Z 18010KT 17/06 A3002 RMK A01 T01680058  RH  048%=      5-min Rain = 0
KBI1 140552Z 18010KT 17/06 A3002 RMK A01 T01680058  RH  048%=      5-min Rain = 0
KBI1 140553Z 18010KT 17/06 A3001 RMK A01 T01680058  RH  048%=      5-min Rain = 0
KBI1 140554Z 18010KT 17/06 A3001 RMK A01 T01680058  RH  048%=      5-min Rain = 0
KBI1 140555Z 18011KT 17/06 A3001 RMK A01 T01680058  RH  048%=      5-min Rain = 0
KBI1 140556Z 18010KT 17/06 A3001 RMK A01 T01680058  RH  048%=      5-min Rain = 0
KBI1 140557Z 17011KT 17/06 A3001 RMK A01 T01680058  RH  048%=      5-min Rain = 0
KBI1 140558Z 17010KT 17/06 A3001 RMK A01 T01680058  RH  048%=      5-min Rain = 0
KBI1 140559Z 17010KT 17/06 A3001 RMK A01 T01680058  RH  048%=      5-min Rain = 0
KBI1 140600Z 17010KT 17/06 A3001 RMK A01 T01680058  RH  048%=      5-min Rain = 0
KBI1 140601Z 17011KT 17/06 A3001 RMK A01 T01690059  RH  048%=      5-min Rain = 0
KBI1 140602Z 17010KT 17/06 A3001 RMK A01 T01690059  RH  048%=      5-min Rain = 0
KBI1 140603Z 17011KT 17/06 A3001 RMK A01 T01690059  RH  048%=      5-min Rain = 0
KBI1 140604Z 17011KT 17/06 A3001 RMK A01 T01690059  RH  048%=      5-min Rain = 0
KBI1 140605Z 17011KT 17/06 A3001 RMK A01 T01700060  RH  048%=      5-min Rain = 0
KBI1 140606Z 18009KT 17/06 A3001 RMK A01 T01690059  RH  048%=      5-min Rain = 0
KBI1 140607Z 18010KT 17/06 A3001 RMK A01 T01690059  RH  048%=      5-min Rain = 0
KBI1 140608Z 18011KT 17/06 A3001 RMK A01 T01690060  RH  048%=      5-min Rain = 0
KBI1 140609Z 18011KT 17/06 A3001 RMK A01 T01690060  RH  048%=      5-min Rain = 0
KBI1 140610Z 17012KT 17/06 A3001 RMK A01 T01690060  RH  048%=      5-min Rain = 0
KBI1 140611Z 17013KT 17/06 A3001 RMK A01 T01700060  RH  048%=      5-min Rain = 0
KBI1 140612Z 17010KT 17/06 A3001 RMK A01 T01700061  RH  048%=      5-min Rain = 0
KBI1 140613Z 18011KT 17/06 A3001 RMK A01 T01700061  RH  048%=      5-min Rain = 0
KBI1 140614Z 17011KT 17/06 A3001 RMK A01 T01700061  RH  048%=      5-min Rain = 0
KBI1 140615Z 18012KT 17/06 A3001 RMK A01 T01700060  RH  048%=      5-min Rain = 0
KBI1 140616Z 18012KT 17/06 A3001 RMK A01 T01700061  RH  048%=      5-min Rain = 0
KBI1 140617Z 18011KT 17/06 A3001 RMK A01 T01700060  RH  048%=      5-min Rain = 0
KBI1 140618Z 17012KT 17/06 A3001 RMK A01 T01700061  RH  048%=      5-min Rain = 0
KBI1 140619Z 17011KT 17/06 A3001 RMK A01 T01710061  RH  048%=      5-min Rain = 0
KBI1 140620Z 17010KT 17/06 A3001 RMK A01 T01700061  RH  048%=      5-min Rain = 0
KBI1 140621Z 18011KT 17/06 A3001 RMK A01 T01700061  RH  048%=      5-min Rain = 0
KBI1 140622Z 19011KT 17/06 A3001 RMK A01 T01700061  RH  049%=      5-min Rain = 0
KBI1 140623Z 18010KT 17/06 A3001 RMK A01 T01700061  RH  049%=      5-min Rain = 0
KBI1 140624Z 18011KT 17/06 A3001 RMK A01 T01700061  RH  049%=      5-min Rain = 0
KBI1 140625Z 18011KT 17/06 A3001 RMK A01 T01700061  RH  049%=      5-min Rain = 0
KBI1 140626Z 19010KT 17/06 A3001 RMK A01 T01700061  RH  049%=      5-min Rain = 0
KBI1 140627Z 20008KT 17/06 A3002 RMK A01 T01700061  RH  049%=      5-min Rain = 0
KBI1 140628Z 20008KT 17/06 A3002 RMK A01 T01700062  RH  049%=      5-min Rain = 0
KBI1 140629Z 20010KT 17/06 A3002 RMK A01 T01700062  RH  049%=      5-min Rain = 0
KBI1 140630Z 19009KT 17/06 A3002 RMK A01 T01700062  RH  049%=      5-min Rain = 0
KBI1 140631Z 19010KT 17/06 A3002 RMK A01 T01700062  RH  049%=      5-min Rain = 0
KBI1 140632Z 20008KT 17/06 A3002 RMK A01 T01710062  RH  049%=      5-min Rain = 0
KBI1 140633Z 19009KT 17/06 A3002 RMK A01 T01710062  RH  049%=      5-min Rain = 0
KBI1 140634Z 19009KT 17/06 A3002 RMK A01 T01710062  RH  049%=      5-min Rain = 0
KBI1 140635Z 19008KT 17/06 A3002 RMK A01 T01710063  RH  049%=      5-min Rain = 0
KBI1 140636Z 18008KT 17/06 A3002 RMK A01 T01710063  RH  049%=      5-min Rain = 0
KBI1 140637Z 18008KT 17/06 A3002 RMK A01 T01700063  RH  049%=      5-min Rain = 0
KBI1 140638Z 18009KT 17/06 A3002 RMK A01 T01700062  RH  049%=      5-min Rain = 0
KBI1 140639Z 18009KT 17/06 A3002 RMK A01 T01700062  RH  049%=      5-min Rain = 0
KBI1 140640Z 19007KT 17/06 A3002 RMK A01 T01700063  RH  049%=      5-min Rain = 0
KBI1 140641Z 19006KT 17/06 A3002 RMK A01 T01700063  RH  049%=      5-min Rain = 0
KBI1 140642Z 20006KT 17/06 A3002 RMK A01 T01700062  RH  049%=      5-min Rain = 0
KBI1 140643Z 22005KT 17/06 A3003 RMK A01 T01700062  RH  049%=      5-min Rain = 0
KBI1 140644Z 23004KT 17/06 A3003 RMK A01 T01700063  RH  049%=      5-min Rain = 0
KBI1 140645Z 24004KT 17/06 A3003 RMK A01 T01700063  RH  049%=      5-min Rain = 0
KBI1 140646Z 23005KT 17/06 A3003 RMK A01 T01700063  RH  049%=      5-min Rain = 0
KBI1 140647Z 23005KT 17/06 A3003 RMK A01 T01700063  RH  049%=      5-min Rain = 0
KBI1 140648Z 21006KT 17/06 A3003 RMK A01 T01700064  RH  049%=      5-min Rain = 0
KBI1 140649Z 20007KT 17/06 A3003 RMK A01 T01700064  RH  049%=      5-min Rain = 0
KBI1 140650Z 19007KT 17/06 A3003 RMK A01 T01700064  RH  049%=      5-min Rain = 0
KBI1 140651Z 19008KT 17/06 A3003 RMK A01 T01700064  RH  049%=      5-min Rain = 0
KBI1 140652Z 19010KT 17/06 A3002 RMK A01 T01700064  RH  049%=      5-min Rain = 0
KBI1 140653Z 19011KT 17/06 A3002 RMK A01 T01700064  RH  050%=      5-min Rain = 0
KBI1 140654Z 18010KT 17/06 A3002 RMK A01 T01700064  RH  050%=      5-min Rain = 0
KBI1 140655Z 19010KT 17/07 A3002 RMK A01 T01710065  RH  050%=      5-min Rain = 0
KBI1 140656Z 18009KT 17/07 A3002 RMK A01 T01710065  RH  050%=      5-min Rain = 0
KBI1 140657Z 20007KT 17/07 A3002 RMK A01 T01710065  RH  050%=      5-min Rain = 0
KBI1 140658Z 20007KT 17/07 A3002 RMK A01 T01710065  RH  050%=      5-min Rain = 0
KBI1 140659Z 19011KT 17/07 A3002 RMK A01 T01710065  RH  050%=      5-min Rain = 0
KBI1 140700Z 20010KT 17/07 A3002 RMK A01 T01710065  RH  050%=      5-min Rain = 0
KBI1 140701Z 19009KT 17/07 A3002 RMK A01 T01720065  RH  049%=      5-min Rain = 0
KBI1 140702Z 19008KT 17/07 A3002 RMK A01 T01720065  RH  049%=      5-min Rain = 0
KBI1 140703Z 18009KT 17/07 A3002 RMK A01 T01720065  RH  049%=      5-min Rain = 0
KBI1 140704Z 18010KT 17/07 A3002 RMK A01 T01720065  RH  049%=      5-min Rain = 0
KBI1 140705Z 18008KT 17/07 A3002 RMK A01 T01720065  RH  049%=      5-min Rain = 0
KBI1 140706Z 18009KT 17/07 A3002 RMK A01 T01720065  RH  049%=      5-min Rain = 0
KBI1 140707Z 19009KT 17/07 A3002 RMK A01 T01720065  RH  049%=      5-min Rain = 0
KBI1 140708Z 19008KT 17/06 A3002 RMK A01 T01710064  RH  049%=      5-min Rain = 0
KBI1 140709Z 19008KT 17/06 A3002 RMK A01 T01710064  RH  049%=      5-min Rain = 0
KBI1 140710Z 19007KT 17/06 A3002 RMK A01 T01710064  RH  049%=      5-min Rain = 0
KBI1 140711Z 19007KT 17/06 A3002 RMK A01 T01710064  RH  049%=      5-min Rain = 0
KBI1 140712Z 19007KT 17/06 A3002 RMK A01 T01710064  RH  049%=      5-min Rain = 0
KBI1 140713Z 19007KT 17/06 A3002 RMK A01 T01710064  RH  049%=      5-min Rain = 0
KBI1 140714Z 19008KT 17/06 A3002 RMK A01 T01710064  RH  049%=      5-min Rain = 0
KBI1 140715Z 19008KT 17/06 A3002 RMK A01 T01710064  RH  049%=      5-min Rain = 0
KBI1 140716Z 19008KT 17/06 A3002 RMK A01 T01710064  RH  049%=      5-min Rain = 0
KBI1 140717Z 19007KT 17/06 A3002 RMK A01 T01710064  RH  049%=      5-min Rain = 0
KBI1 140718Z 19008KT 17/06 A3002 RMK A01 T01710064  RH  049%=      5-min Rain = 0
KBI1 140719Z 19008KT 17/06 A3002 RMK A01 T01710064  RH  049%=      5-min Rain = 0
KBI1 140720Z 19007KT 17/06 A3002 RMK A01 T01710064  RH  049%=      5-min Rain = 0
KBI1 140721Z 19006KT 17/06 A3002 RMK A01 T01710064  RH  049%=      5-min Rain = 0
KBI1 140722Z 20005KT 17/07 A3002 RMK A01 T01710065  RH  050%=      5-min Rain = 0
KBI1 140723Z 20006KT 17/06 A3002 RMK A01 T01710064  RH  050%=      5-min Rain = 0
KBI1 140724Z 20006KT 17/06 A3002 RMK A01 T01710064  RH  050%=      5-min Rain = 0
KBI1 140725Z 19007KT 17/07 A3002 RMK A01 T01710065  RH  050%=      5-min Rain = 0
KBI1 140726Z 19006KT 17/06 A3002 RMK A01 T01710064  RH  050%=      5-min Rain = 0
KBI1 140727Z 19007KT 17/07 A3002 RMK A01 T01710065  RH  050%=      5-min Rain = 0
KBI1 140728Z 18008KT 17/06 A3002 RMK A01 T01700064  RH  050%=      5-min Rain = 0
KBI1 140729Z 18008KT 17/07 A3002 RMK A01 T01700065  RH  050%=      5-min Rain = 0
KBI1 140730Z 18008KT 17/07 A3002 RMK A01 T01700065  RH  050%=      5-min Rain = 0
KBI1 140731Z 18008KT 17/06 A3002 RMK A01 T01700064  RH  050%=      5-min Rain = 0
KBI1 140732Z 18007KT 17/07 A3002 RMK A01 T01700065  RH  050%=      5-min Rain = 0
KBI1 140733Z 17007KT 17/07 A3002 RMK A01 T01700065  RH  050%=      5-min Rain = 0
KBI1 140734Z 18008KT 17/07 A3002 RMK A01 T01700065  RH  050%=      5-min Rain = 0
KBI1 140735Z 17008KT 17/07 A3001 RMK A01 T01700065  RH  050%=      5-min Rain = 0
KBI1 140736Z 17009KT 17/07 A3001 RMK A01 T01710065  RH  050%=      5-min Rain = 0
KBI1 140737Z 17009KT 17/07 A3001 RMK A01 T01710065  RH  050%=      5-min Rain = 0
KBI1 140738Z 16008KT 17/07 A3001 RMK A01 T01710065  RH  050%=      5-min Rain = 0
KBI1 140739Z 16010KT 17/07 A3001 RMK A01 T01710065  RH  050%=      5-min Rain = 0
KBI1 140740Z 16010KT 17/07 A3001 RMK A01 T01710065  RH  050%=      5-min Rain = 0
KBI1 140741Z 17011KT 17/07 A3001 RMK A01 T01710065  RH  050%=      5-min Rain = 0
KBI1 140742Z 17010KT 17/07 A3001 RMK A01 T01710066  RH  050%=      5-min Rain = 0
KBI1 140743Z 17009KT 17/07 A3001 RMK A01 T01710066  RH  050%=      5-min Rain = 0
KBI1 140744Z 17008KT 17/07 A3001 RMK A01 T01710066  RH  050%=      5-min Rain = 0
KBI1 140745Z 17010KT 17/07 A3001 RMK A01 T01710066  RH  050%=      5-min Rain = 0
KBI1 140746Z 18009KT 17/07 A3001 RMK A01 T01720066  RH  050%=      5-min Rain = 0
KBI1 140747Z 18010KT 17/07 A3001 RMK A01 T01720067  RH  050%=      5-min Rain = 0
KBI1 140748Z 18010KT 17/07 A3001 RMK A01 T01720067  RH  050%=      5-min Rain = 0
KBI1 140749Z 19009KT 17/07 A3001 RMK A01 T01710067  RH  050%=      5-min Rain = 0
KBI1 140750Z 19009KT 17/07 A3001 RMK A01 T01720067  RH  050%=      5-min Rain = 0
KBI1 140751Z 19009KT 17/07 A3001 RMK A01 T01710067  RH  050%=      5-min Rain = 0
KBI1 140752Z 19010KT 17/07 A3001 RMK A01 T01720068  RH  050%=      5-min Rain = 0
KBI1 140753Z 19010KT 17/07 A3001 RMK A01 T01720068  RH  050%=      5-min Rain = 0
KBI1 140754Z 19009KT 17/07 A3001 RMK A01 T01720068  RH  050%=      5-min Rain = 0
KBI1 140755Z 19010KT 17/07 A3002 RMK A01 T01720069  RH  050%=      5-min Rain = 0
KBI1 140756Z 19009KT 17/07 A3001 RMK A01 T01730069  RH  050%=      5-min Rain = 0
KBI1 140757Z 19009KT 17/07 A3001 RMK A01 T01730069  RH  050%=      5-min Rain = 0
KBI1 140758Z 19009KT 17/07 A3001 RMK A01 T01730069  RH  051%=      5-min Rain = 0
KBI1 140759Z 19009KT 17/07 A3001 RMK A01 T01730070  RH  051%=      5-min Rain = 0
KBI1 140800Z 19007KT 17/07 A3001 RMK A01 T01730069  RH  051%=      5-min Rain = 0
KBI1 140801Z 19008KT 17/07 A3001 RMK A01 T01730070  RH  051%=      5-min Rain = 0
KBI1 140802Z 19008KT 17/07 A3001 RMK A01 T01740070  RH  051%=      5-min Rain = 0
KBI1 140803Z 19009KT 17/07 A3001 RMK A01 T01730070  RH  051%=      5-min Rain = 0
KBI1 140804Z 19008KT 17/07 A3001 RMK A01 T01740070  RH  051%=      5-min Rain = 0
KBI1 140805Z 19008KT 17/07 A3001 RMK A01 T01740071  RH  051%=      5-min Rain = 0
KBI1 140806Z 19008KT 17/07 A3001 RMK A01 T01740070  RH  051%=      5-min Rain = 0
KBI1 140807Z 18008KT 17/07 A3001 RMK A01 T01740071  RH  051%=      5-min Rain = 0
KBI1 140808Z 18009KT 17/07 A3001 RMK A01 T01740071  RH  051%=      5-min Rain = 0
KBI1 140809Z 19008KT 17/07 A3001 RMK A01 T01740071  RH  051%=      5-min Rain = 0
KBI1 140810Z 19007KT 18/07 A3001 RMK A01 T01750071  RH  051%=      5-min Rain = 0
KBI1 140811Z 19007KT 18/07 A3001 RMK A01 T01750071  RH  051%=      5-min Rain = 0
KBI1 140812Z 19008KT 18/07 A3001 RMK A01 T01750071  RH  051%=      5-min Rain = 0
KBI1 140813Z 19008KT 18/07 A3001 RMK A01 T01750072  RH  051%=      5-min Rain = 0
KBI1 140814Z 18006KT 18/07 A3001 RMK A01 T01760072  RH  051%=      5-min Rain = 0
KBI1 140815Z 18009KT 18/07 A3001 RMK A01 T01760072  RH  051%=      5-min Rain = 0
KBI1 140816Z 18008KT 18/07 A3001 RMK A01 T01760072  RH  051%=      5-min Rain = 0
KBI1 140817Z 18009KT 18/07 A3001 RMK A01 T01760073  RH  051%=      5-min Rain = 0
KBI1 140818Z 18008KT 18/07 A3001 RMK A01 T01770073  RH  050%=      5-min Rain = 0
KBI1 140819Z 18007KT 18/07 A3001 RMK A01 T01770072  RH  050%=      5-min Rain = 0
KBI1 140820Z 18007KT 18/07 A3001 RMK A01 T01770073  RH  050%=      5-min Rain = 0
KBI1 140821Z 18008KT 18/07 A3001 RMK A01 T01770072  RH  050%=      5-min Rain = 0
KBI1 140822Z 18007KT 18/07 A3001 RMK A01 T01770072  RH  050%=      5-min Rain = 0
KBI1 140823Z 18008KT 18/07 A3001 RMK A01 T01780073  RH  050%=      5-min Rain = 0
KBI1 140824Z 17006KT 18/07 A3001 RMK A01 T01780072  RH  050%=      5-min Rain = 0
KBI1 140825Z 17007KT 18/07 A3001 RMK A01 T01780073  RH  050%=      5-min Rain = 0
KBI1 140826Z 17007KT 18/07 A30 RMK A01 T01780073  RH  050%=      5-min Rain = 0
KBI1 140827Z 17007KT 18/07 A30 RMK A01 T01780072  RH  050%=      5-min Rain = 0
KBI1 140828Z 17009KT 18/07 A30 RMK A01 T01780073  RH  050%=      5-min Rain = 0
KBI1 140829Z 17007KT 18/07 A30 RMK A01 T01780073  RH  050%=      5-min Rain = 0
KBI1 140830Z 17007KT 18/07 A30 RMK A01 T01790073  RH  050%=      5-min Rain = 0
KBI1 140831Z 17010KT 18/07 A30 RMK A01 T01790073  RH  050%=      5-min Rain = 0
KBI1 140832Z 18006KT 18/07 A30 RMK A01 T01790073  RH  050%=      5-min Rain = 0
KBI1 140833Z 18008KT 18/07 A30 RMK A01 T01800073  RH  050%=      5-min Rain = 0
KBI1 140834Z 17007KT 18/07 A30 RMK A01 T01790073  RH  050%=      5-min Rain = 0
KBI1 140835Z 18008KT 18/07 A30 RMK A01 T01800073  RH  050%=      5-min Rain = 0
KBI1 140836Z 17008KT 18/07 A30 RMK A01 T01800073  RH  050%=      5-min Rain = 0
KBI1 140837Z 18009KT 18/07 A30 RMK A01 T01800073  RH  050%=      5-min Rain = 0
KBI1 140838Z 17010KT 18/07 A30 RMK A01 T01800073  RH  050%=      5-min Rain = 0
KBI1 140839Z 18008KT 18/07 A30 RMK A01 T01810073  RH  049%=      5-min Rain = 0
KBI1 140840Z 19008KT 18/07 A30 RMK A01 T01810073  RH  049%=      5-min Rain = 0
KBI1 140841Z 18009KT 18/07 A30 RMK A01 T01810073  RH  049%=      5-min Rain = 0
KBI1 140842Z 19009KT 18/07 A30 RMK A01 T01820073  RH  049%=      5-min Rain = 0
KBI1 140843Z 19008KT 18/07 A30 RMK A01 T01820073  RH  049%=      5-min Rain = 0
KBI1 140844Z 19009KT 18/07 A30 RMK A01 T01820073  RH  049%=      5-min Rain = 0
KBI1 140845Z 19009KT 18/07 A30 RMK A01 T01820073  RH  049%=      5-min Rain = 0
KBI1 140846Z 19007KT 18/07 A30 RMK A01 T01830073  RH  049%=      5-min Rain = 0
KBI1 140847Z 19006KT 18/07 A30 RMK A01 T01830072  RH  048%=      5-min Rain = 0
KBI1 140848Z 20006KT 18/07 A30 RMK A01 T01830072  RH  048%=      5-min Rain = 0
KBI1 140849Z 20005KT 18/07 A30 RMK A01 T01830072  RH  048%=      5-min Rain = 0
KBI1 140850Z 20006KT 18/07 A30 RMK A01 T01830072  RH  048%=      5-min Rain = 0
KBI1 140851Z 19006KT 18/07 A30 RMK A01 T01840073  RH  048%=      5-min Rain = 0
KBI1 140852Z 19006KT 18/07 A30 RMK A01 T01830072  RH  048%=      5-min Rain = 0
KBI1 140853Z 19005KT 18/07 A30 RMK A01 T01830072  RH  048%=      5-min Rain = 0
KBI1 140854Z 19006KT 18/07 A30 RMK A01 T01830072  RH  048%=      5-min Rain = 0
KBI1 140855Z 19006KT 18/07 A30 RMK A01 T01830072  RH  048%=      5-min Rain = 0
KBI1 140856Z 20005KT 18/07 A30 RMK A01 T01830071  RH  048%=      5-min Rain = 0
KBI1 140857Z 20005KT 18/07 A30 RMK A01 T01830071  RH  048%=      5-min Rain = 0
KBI1 140858Z 19006KT 18/07 A30 RMK A01 T01830071  RH  048%=      5-min Rain = 0
KBI1 140859Z 21005KT 18/07 A30 RMK A01 T01830071  RH  048%=      5-min Rain = 0
KBI1 140900Z 20005KT 18/07 A30 RMK A01 T01830071  RH  048%=      5-min Rain = 0
KBI1 140901Z 20006KT 18/07 A30 RMK A01 T01830070  RH  048%=      5-min Rain = 0
KBI1 140902Z 21006KT 18/07 A30 RMK A01 T01840070  RH  047%=      5-min Rain = 0
KBI1 140903Z 20005KT 18/07 A30 RMK A01 T01840070  RH  047%=      5-min Rain = 0
KBI1 140904Z 19005KT 18/07 A30 RMK A01 T01840070  RH  047%=      5-min Rain = 0
KBI1 140905Z 19004KT 18/07 A30 RMK A01 T01840070  RH  047%=      5-min Rain = 0
KBI1 140906Z 19005KT 18/07 A30 RMK A01 T01830070  RH  048%=      5-min Rain = 0
KBI1 140907Z 20005KT 18/07 A30 RMK A01 T01830070  RH  048%=      5-min Rain = 0
KBI1 140908Z 20005KT 18/07 A30 RMK A01 T01830069  RH  047%=      5-min Rain = 0
KBI1 140909Z 19005KT 18/07 A30 RMK A01 T01830069  RH  047%=      5-min Rain = 0
KBI1 140910Z 20005KT 18/07 A30 RMK A01 T01830069  RH  047%=      5-min Rain = 0
KBI1 140911Z 20004KT 18/07 A30 RMK A01 T01830069  RH  047%=      5-min Rain = 0
KBI1 140912Z 20004KT 18/07 A30 RMK A01 T01840069  RH  047%=      5-min Rain = 0
KBI1 140913Z 20004KT 18/07 A30 RMK A01 T01830069  RH  047%=      5-min Rain = 0
KBI1 140914Z 19004KT 18/07 A30 RMK A01 T01830069  RH  047%=      5-min Rain = 0
KBI1 140915Z 19004KT 18/07 A30 RMK A01 T01830069  RH  047%=      5-min Rain = 0
KBI1 140916Z 19004KT 18/07 A30 RMK A01 T01820069  RH  047%=      5-min Rain = 0
KBI1 140917Z 19005KT 18/07 A30 RMK A01 T01810069  RH  048%=      5-min Rain = 0
KBI1 140918Z 19005KT 18/07 A30 RMK A01 T01810069  RH  048%=      5-min Rain = 0
KBI1 140919Z 19005KT 18/07 A30 RMK A01 T01810068  RH  048%=      5-min Rain = 0
KBI1 140920Z 19006KT 18/07 A30 RMK A01 T01810068  RH  048%=      5-min Rain = 0
KBI1 140921Z 18006KT 18/07 A30 RMK A01 T01810068  RH  048%=      5-min Rain = 0
KBI1 140922Z 18005KT 18/07 A30 RMK A01 T01810068  RH  048%=      5-min Rain = 0
KBI1 140923Z 18006KT 18/07 A30 RMK A01 T01810068  RH  048%=      5-min Rain = 0
KBI1 140924Z 18006KT 18/07 A30 RMK A01 T01810068  RH  048%=      5-min Rain = 0
KBI1 140925Z 18006KT 18/07 A30 RMK A01 T01800068  RH  048%=      5-min Rain = 0
KBI1 140926Z 18006KT 18/07 A30 RMK A01 T01800068  RH  048%=      5-min Rain = 0
KBI1 140927Z 18006KT 18/07 A30 RMK A01 T01800067  RH  048%=      5-min Rain = 0
KBI1 140928Z 18006KT 18/07 A30 RMK A01 T01810067  RH  047%=      5-min Rain = 0
KBI1 140929Z 18006KT 18/07 A30 RMK A01 T01800067  RH  047%=      5-min Rain = 0
KBI1 140930Z 17006KT 18/07 A30 RMK A01 T01800067  RH  047%=      5-min Rain = 0
KBI1 140931Z 18006KT 18/07 A30 RMK A01 T01800067  RH  048%=      5-min Rain = 0
KBI1 140932Z 18005KT 18/07 A30 RMK A01 T01800067  RH  047%=      5-min Rain = 0
KBI1 140933Z 18006KT 18/07 A30 RMK A01 T01800067  RH  047%=      5-min Rain = 0
KBI1 140934Z 19006KT 18/07 A30 RMK A01 T01800067  RH  047%=      5-min Rain = 0
KBI1 140935Z 19006KT 18/07 A30 RMK A01 T01800067  RH  048%=      5-min Rain = 0
KBI1 140936Z 19006KT 18/07 A30 RMK A01 T01790066  RH  048%=      5-min Rain = 0
KBI1 140937Z 19006KT 18/07 A3001 RMK A01 T01790066  RH  047%=      5-min Rain = 0
KBI1 140938Z 19005KT 18/07 A3001 RMK A01 T01790066  RH  047%=      5-min Rain = 0
KBI1 140939Z 19005KT 18/07 A3001 RMK A01 T01790066  RH  048%=      5-min Rain = 0
KBI1 140940Z 18005KT 18/07 A30 RMK A01 T01790066  RH  048%=      5-min Rain = 0
KBI1 140941Z 18005KT 18/07 A3001 RMK A01 T01790066  RH  048%=      5-min Rain = 0
KBI1 140942Z 19005KT 18/07 A3001 RMK A01 T01790066  RH  048%=      5-min Rain = 0
KBI1 140943Z 19005KT 18/07 A3001 RMK A01 T01780066  RH  048%=      5-min Rain = 0
KBI1 140944Z 19005KT 18/07 A3001 RMK A01 T01780066  RH  048%=      5-min Rain = 0
KBI1 140945Z 18005KT 18/07 A3001 RMK A01 T01770066  RH  048%=      5-min Rain = 0
KBI1 140946Z 18005KT 18/07 A3001 RMK A01 T01770066  RH  048%=      5-min Rain = 0
KBI1 140947Z 18006KT 18/07 A3001 RMK A01 T01770066  RH  048%=      5-min Rain = 0
KBI1 140948Z 18006KT 18/07 A3001 RMK A01 T01760066  RH  048%=      5-min Rain = 0
KBI1 140949Z 18006KT 18/07 A3001 RMK A01 T01760066  RH  048%=      5-min Rain = 0
KBI1 140950Z 18006KT 18/07 A3001 RMK A01 T01760065  RH  048%=      5-min Rain = 0
KBI1 140951Z 18007KT 18/07 A3001 RMK A01 T01760065  RH  048%=      5-min Rain = 0
KBI1 140952Z 18007KT 18/07 A3001 RMK A01 T01770065  RH  048%=      5-min Rain = 0
KBI1 140953Z 18007KT 18/07 A3001 RMK A01 T01770066  RH  048%=      5-min Rain = 0
KBI1 140954Z 18007KT 18/07 A3001 RMK A01 T01770065  RH  048%=      5-min Rain = 0
KBI1 140955Z 17006KT 18/07 A3001 RMK A01 T01770065  RH  048%=      5-min Rain = 0
KBI1 140956Z 18007KT 18/07 A3001 RMK A01 T01770065  RH  048%=      5-min Rain = 0
KBI1 140957Z 18007KT 18/07 A3001 RMK A01 T01770065  RH  048%=      5-min Rain = 0
KBI1 140958Z 18006KT 18/07 A3001 RMK A01 T01770065  RH  048%=      5-min Rain = 0
KBI1 140959Z 18006KT 18/07 A3001 RMK A01 T01770066  RH  048%=      5-min Rain = 0
KBI1 141000Z 18006KT 18/07 A3001 RMK A01 T01760065  RH  048%=      5-min Rain = 0
KBI1 141001Z 18006KT 18/07 A3001 RMK A01 T01760066  RH  048%=      5-min Rain = 0
KBI1 141002Z 18007KT 18/07 A3001 RMK A01 T01750066  RH  049%=      5-min Rain = 0
KBI1 141003Z 18007KT 18/07 A3001 RMK A01 T01750066  RH  049%=      5-min Rain = 0
KBI1 141004Z 18006KT 18/07 A3001 RMK A01 T01750066  RH  049%=      5-min Rain = 0
KBI1 141005Z 18006KT 18/07 A3001 RMK A01 T01750066  RH  049%=      5-min Rain = 0
KBI1 141006Z 18006KT 18/07 A3001 RMK A01 T01750066  RH  049%=      5-min Rain = 0
KBI1 141007Z 18006KT 18/07 A3001 RMK A01 T01750066  RH  049%=      5-min Rain = 0
KBI1 141008Z 18007KT 18/07 A3001 RMK A01 T01750066  RH  049%=      5-min Rain = 0
KBI1 141009Z 18007KT 18/07 A3001 RMK A01 T01750067  RH  049%=      5-min Rain = 0
KBI1 141010Z 18007KT 17/07 A3001 RMK A01 T01740066  RH  049%=      5-min Rain = 0
KBI1 141011Z 18009KT 18/07 A3001 RMK A01 T01750066  RH  049%=      5-min Rain = 0
KBI1 141012Z 18007KT 17/07 A3001 RMK A01 T01740066  RH  049%=      5-min Rain = 0
KBI1 141013Z 19008KT 18/07 A3001 RMK A01 T01750066  RH  049%=      5-min Rain = 0
KBI1 141014Z 19008KT 17/07 A3001 RMK A01 T01740066  RH  049%=      5-min Rain = 0
KBI1 141015Z 18009KT 18/07 A3001 RMK A01 T01750066  RH  049%=      5-min Rain = 0
KBI1 141016Z 18009KT 18/07 A3001 RMK A01 T01760066  RH  048%=      5-min Rain = 0
KBI1 141017Z 18008KT 18/07 A3001 RMK A01 T01760066  RH  048%=      5-min Rain = 0
KBI1 141018Z 19008KT 18/07 A3001 RMK A01 T01760066  RH  048%=      5-min Rain = 0
KBI1 141019Z 18008KT 18/07 A3001 RMK A01 T01770066  RH  048%=      5-min Rain = 0
KBI1 141020Z 18009KT 18/07 A3001 RMK A01 T01770066  RH  048%=      5-min Rain = 0
KBI1 141021Z 18009KT 18/07 A3001 RMK A01 T01770066  RH  048%=      5-min Rain = 0
KBI1 141022Z 18008KT 18/07 A3001 RMK A01 T01770066  RH  048%=      5-min Rain = 0
KBI1 141023Z 18008KT 18/07 A3001 RMK A01 T01770066  RH  048%=      5-min Rain = 0
KBI1 141024Z 18007KT 18/07 A3001 RMK A01 T01770066  RH  048%=      5-min Rain = 0
KBI1 141025Z 18008KT 18/07 A3001 RMK A01 T01760066  RH  048%=      5-min Rain = 0
KBI1 141026Z 18007KT 18/07 A3001 RMK A01 T01760066  RH  048%=      5-min Rain = 0
KBI1 141027Z 19007KT 18/07 A3001 RMK A01 T01760066  RH  048%=      5-min Rain = 0
KBI1 141028Z 18007KT 18/07 A3001 RMK A01 T01760066  RH  048%=      5-min Rain = 0
KBI1 141029Z 18007KT 18/07 A3001 RMK A01 T01750066  RH  048%=      5-min Rain = 0
KBI1 141030Z 18007KT 18/07 A3001 RMK A01 T01750066  RH  049%=      5-min Rain = 0
KBI1 141031Z 18006KT 18/07 A3001 RMK A01 T01750065  RH  049%=      5-min Rain = 0
KBI1 141032Z 17006KT 18/07 A3001 RMK A01 T01750065  RH  049%=      5-min Rain = 0
KBI1 141033Z 17006KT 18/07 A3001 RMK A01 T01750065  RH  049%=      5-min Rain = 0
KBI1 141034Z 18005KT 18/07 A3001 RMK A01 T01750065  RH  049%=      5-min Rain = 0
KBI1 141035Z 17006KT 18/07 A3001 RMK A01 T01750066  RH  049%=      5-min Rain = 0
KBI1 141036Z 17007KT 18/07 A3001 RMK A01 T01750066  RH  049%=      5-min Rain = 0
KBI1 141037Z 17007KT 17/07 A3001 RMK A01 T01740065  RH  049%=      5-min Rain = 0
KBI1 141038Z 17007KT 17/07 A3001 RMK A01 T01740065  RH  049%=      5-min Rain = 0
KBI1 141039Z 17007KT 17/07 A3001 RMK A01 T01740065  RH  049%=      5-min Rain = 0
KBI1 141040Z 17007KT 18/07 A3001 RMK A01 T01750066  RH  049%=      5-min Rain = 0
KBI1 141041Z 17006KT 18/07 A3001 RMK A01 T01750065  RH  049%=      5-min Rain = 0
KBI1 141042Z 17007KT 18/07 A3001 RMK A01 T01750066  RH  049%=      5-min Rain = 0
KBI1 141043Z 17006KT 18/07 A3001 RMK A01 T01750065  RH  048%=      5-min Rain = 0
KBI1 141044Z 16006KT 18/07 A3001 RMK A01 T01760066  RH  048%=      5-min Rain = 0
KBI1 141045Z 16006KT 18/07 A3001 RMK A01 T01750065  RH  048%=      5-min Rain = 0
KBI1 141046Z 15005KT 18/07 A3001 RMK A01 T01750065  RH  048%=      5-min Rain = 0
KBI1 141047Z 16005KT 18/07 A3001 RMK A01 T01750066  RH  049%=      5-min Rain = 0
KBI1 141048Z 15005KT 18/07 A3001 RMK A01 T01750066  RH  049%=      5-min Rain = 0
KBI1 141049Z 16006KT 18/07 A3001 RMK A01 T01750066  RH  049%=      5-min Rain = 0
KBI1 141050Z 16005KT 18/07 A3001 RMK A01 T01750066  RH  049%=      5-min Rain = 0
KBI1 141051Z 16005KT 18/07 A3001 RMK A01 T01750066  RH  049%=      5-min Rain = 0
KBI1 141052Z 16005KT 18/07 A3001 RMK A01 T01750066  RH  049%=      5-min Rain = 0
KBI1 141053Z 16006KT 18/07 A3001 RMK A01 T01750066  RH  049%=      5-min Rain = 0
KBI1 141054Z 16006KT 17/07 A3001 RMK A01 T01740066  RH  049%=      5-min Rain = 0
KBI1 141055Z 16005KT 18/07 A3001 RMK A01 T01750066  RH  049%=      5-min Rain = 0
KBI1 141056Z 16005KT 17/07 A3001 RMK A01 T01740066  RH  049%=      5-min Rain = 0
KBI1 141057Z 16006KT 17/07 A3001 RMK A01 T01730066  RH  049%=      5-min Rain = 0
KBI1 141058Z 16007KT 17/07 A3001 RMK A01 T01730066  RH  049%=      5-min Rain = 0
KBI1 141059Z 16006KT 17/07 A3001 RMK A01 T01730066  RH  049%=      5-min Rain = 0
KBI1 141100Z 16005KT 17/07 A3001 RMK A01 T01730066  RH  049%=      5-min Rain = 0
KBI1 141101Z 16008KT 17/07 A3001 RMK A01 T01730066  RH  049%=      5-min Rain = 0
KBI1 141102Z 16007KT 17/07 A3001 RMK A01 T01730066  RH  049%=      5-min Rain = 0
KBI1 141103Z 17007KT 17/07 A3001 RMK A01 T01730066  RH  049%=      5-min Rain = 0
KBI1 141104Z 16006KT 17/07 A3001 RMK A01 T01720066  RH  049%=      5-min Rain = 0
KBI1 141105Z 16005KT 17/07 A3001 RMK A01 T01730066  RH  049%=      5-min Rain = 0
KBI1 141106Z 16006KT 17/07 A3001 RMK A01 T01720066  RH  049%=      5-min Rain = 0
KBI1 141107Z 16008KT 17/07 A3001 RMK A01 T01720065  RH  049%=      5-min Rain = 0
KBI1 141108Z 17008KT 17/07 A3001 RMK A01 T01730065  RH  049%=      5-min Rain = 0
KBI1 141109Z 17010KT 17/07 A3001 RMK A01 T01730065  RH  049%=      5-min Rain = 0
KBI1 141110Z 16007KT 17/06 A3001 RMK A01 T01730064  RH  049%=      5-min Rain = 0
KBI1 141111Z 15006KT 17/07 A3001 RMK A01 T01740065  RH  049%=      5-min Rain = 0
KBI1 141112Z 16007KT 17/07 A3001 RMK A01 T01740065  RH  049%=      5-min Rain = 0
KBI1 141113Z 17008KT 17/06 A3001 RMK A01 T01730064  RH  049%=      5-min Rain = 0
KBI1 141114Z 16009KT 17/06 A3001 RMK A01 T01730064  RH  049%=      5-min Rain = 0
KBI1 141115Z 17009KT 17/06 A3001 RMK A01 T01740064  RH  048%=      5-min Rain = 0
KBI1 141116Z 16008KT 17/06 A3001 RMK A01 T01740064  RH  048%=      5-min Rain = 0
KBI1 141117Z 16008KT 17/06 A3001 RMK A01 T01740064  RH  048%=      5-min Rain = 0
KBI1 141118Z 17007KT 18/06 A3001 RMK A01 T01750064  RH  048%=      5-min Rain = 0
KBI1 141119Z 17007KT 18/06 A3001 RMK A01 T01750064  RH  048%=      5-min Rain = 0
KBI1 141120Z 17008KT 18/06 A3001 RMK A01 T01750064  RH  048%=      5-min Rain = 0
KBI1 141121Z 17007KT 18/06 A3001 RMK A01 T01760064  RH  048%=      5-min Rain = 0
KBI1 141122Z 17009KT 18/06 A3001 RMK A01 T01760064  RH  048%=      5-min Rain = 0
KBI1 141123Z 18008KT 18/06 A3001 RMK A01 T01760063  RH  048%=      5-min Rain = 0
KBI1 141124Z 17009KT 18/06 A3001 RMK A01 T01760064  RH  048%=      5-min Rain = 0
KBI1 141125Z 18008KT 18/06 A3001 RMK A01 T01760063  RH  048%=      5-min Rain = 0
KBI1 141126Z 17008KT 18/06 A3001 RMK A01 T01760063  RH  047%=      5-min Rain = 0
KBI1 141127Z 18011KT 18/06 A3001 RMK A01 T01770063  RH  047%=      5-min Rain = 0
KBI1 141128Z 18009KT 18/06 A3001 RMK A01 T01770063  RH  047%=      5-min Rain = 0
KBI1 141129Z 18010KT 18/06 A3001 RMK A01 T01770063  RH  047%=      5-min Rain = 0
KBI1 141130Z 18008KT 18/06 A3001 RMK A01 T01770063  RH  047%=      5-min Rain = 0
KBI1 141131Z 18010KT 18/06 A3001 RMK A01 T01770063  RH  047%=      5-min Rain = 0
KBI1 141132Z 17010KT 18/06 A3001 RMK A01 T01780063  RH  047%=      5-min Rain = 0
KBI1 141133Z 18010KT 18/06 A3001 RMK A01 T01780063  RH  047%=      5-min Rain = 0
KBI1 141134Z 18009KT 18/06 A3002 RMK A01 T01780063  RH  047%=      5-min Rain = 0
KBI1 141135Z 18008KT 18/06 A3002 RMK A01 T01770063  RH  047%=      5-min Rain = 0
KBI1 141136Z 18008KT 18/06 A3002 RMK A01 T01780064  RH  047%=      5-min Rain = 0
KBI1 141137Z 19007KT 18/06 A3002 RMK A01 T01770064  RH  047%=      5-min Rain = 0
KBI1 141138Z 18009KT 18/06 A3002 RMK A01 T01770064  RH  047%=      5-min Rain = 0
KBI1 141139Z 18008KT 18/06 A3002 RMK A01 T01770063  RH  047%=      5-min Rain = 0
KBI1 141140Z 18008KT 18/06 A3002 RMK A01 T01770063  RH  047%=      5-min Rain = 0
KBI1 141141Z 18008KT 18/06 A3002 RMK A01 T01770063  RH  047%=      5-min Rain = 0
KBI1 141142Z 18008KT 18/06 A3002 RMK A01 T01770064  RH  047%=      5-min Rain = 0
KBI1 141143Z 18007KT 18/06 A3002 RMK A01 T01770064  RH  047%=      5-min Rain = 0
KBI1 141144Z 18007KT 18/06 A3002 RMK A01 T01770064  RH  047%=      5-min Rain = 0
KBI1 141145Z 18008KT 18/06 A3002 RMK A01 T01770064  RH  047%=      5-min Rain = 0
KBI1 141146Z 18007KT 18/06 A3002 RMK A01 T01770064  RH  048%=      5-min Rain = 0
KBI1 141147Z 18006KT 18/06 A3002 RMK A01 T01760064  RH  048%=      5-min Rain = 0
KBI1 141148Z 19005KT 18/06 A3002 RMK A01 T01770064  RH  048%=      5-min Rain = 0
KBI1 141149Z 19005KT 18/06 A3002 RMK A01 T01760064  RH  048%=      5-min Rain = 0
KBI1 141150Z 19006KT 18/06 A3002 RMK A01 T01760064  RH  048%=      5-min Rain = 0
KBI1 141151Z 19007KT 18/06 A3002 RMK A01 T01760064  RH  048%=      5-min Rain = 0
KBI1 141152Z 18006KT 18/06 A3002 RMK A01 T01760064  RH  048%=      5-min Rain = 0
KBI1 141153Z 18008KT 18/06 A3002 RMK A01 T01760064  RH  048%=      5-min Rain = 0
KBI1 141154Z 19006KT 18/06 A3002 RMK A01 T01760064  RH  048%=      5-min Rain = 0
KBI1 141155Z 18006KT 18/07 A3002 RMK A01 T01760065  RH  048%=      5-min Rain = 0
KBI1 141156Z 18006KT 18/07 A3002 RMK A01 T01760065  RH  048%=      5-min Rain = 0
KBI1 141157Z 18005KT 18/07 A3002 RMK A01 T01760065  RH  048%=      5-min Rain = 0
KBI1 141158Z 18006KT 18/07 A3002 RMK A01 T01760065  RH  048%=      5-min Rain = 0
KBI1 141159Z 18005KT 18/07 A3002 RMK A01 T01760066  RH  048%=      5-min Rain = 0
KBI1 141200Z 18004KT 18/07 A3002 RMK A01 T01760066  RH  048%=      5-min Rain = 0
KBI1 141201Z 19005KT 18/07 A3003 RMK A01 T01760066  RH  048%=      5-min Rain = 0
KBI1 141202Z 19006KT 18/07 A3003 RMK A01 T01760067  RH  049%=      5-min Rain = 0
KBI1 141203Z 20006KT 18/07 A3003 RMK A01 T01760068  RH  049%=      5-min Rain = 0
KBI1 141204Z 19006KT 18/07 A3003 RMK A01 T01750069  RH  050%=      5-min Rain = 0
KBI1 141205Z 19005KT 18/07 A3003 RMK A01 T01750072  RH  051%=      5-min Rain = 0
KBI1 141206Z 19006KT 18/07 A3003 RMK A01 T01750072  RH  051%=      5-min Rain = 0
KBI1 141207Z 20005KT 17/07 A3003 RMK A01 T01740074  RH  052%=      5-min Rain = 0
KBI1 141208Z 19007KT 17/08 A3003 RMK A01 T01730075  RH  053%=      5-min Rain = 0
KBI1 141209Z 19006KT 17/08 A3003 RMK A01 T01720076  RH  053%=      5-min Rain = 0
KBI1 141210Z 19005KT 17/08 A3003 RMK A01 T01710080  RH  055%=      5-min Rain = 0
KBI1 141211Z 19005KT 17/08 A3003 RMK A01 T01700081  RH  056%=      5-min Rain = 0
KBI1 141212Z 19006KT 17/08 A3003 RMK A01 T01690080  RH  056%=      5-min Rain = 0
KBI1 141213Z 19006KT 17/08 A3003 RMK A01 T01690080  RH  056%=      5-min Rain = 0
KBI1 141214Z 19005KT 17/08 A3003 RMK A01 T01690082  RH  056%=      5-min Rain = 0
KBI1 141215Z 19006KT 17/08 A3003 RMK A01 T01680083  RH  057%=      5-min Rain = 0
KBI1 141216Z 19007KT 17/08 A3003 RMK A01 T01680082  RH  057%=      5-min Rain = 0
KBI1 141217Z 19007KT 17/08 A3003 RMK A01 T01670083  RH  057%=      5-min Rain = 0
KBI1 141218Z 19007KT 17/08 A3003 RMK A01 T01670084  RH  058%=      5-min Rain = 0
KBI1 141219Z 18007KT 17/08 A3003 RMK A01 T01670084  RH  058%=      5-min Rain = 0
KBI1 141220Z 18008KT 17/08 A3003 RMK A01 T01660084  RH  058%=      5-min Rain = 0
KBI1 141221Z 18008KT 17/08 A3003 RMK A01 T01660083  RH  058%=      5-min Rain = 0
KBI1 141222Z 18009KT 17/08 A3003 RMK A01 T01660083  RH  058%=      5-min Rain = 0
KBI1 141223Z 18008KT 17/08 A3003 RMK A01 T01670082  RH  057%=      5-min Rain = 0
KBI1 141224Z 18008KT 17/08 A3003 RMK A01 T01670083  RH  057%=      5-min Rain = 0
KBI1 141225Z 18008KT 17/08 A3003 RMK A01 T01670083  RH  057%=      5-min Rain = 0
KBI1 141226Z 18008KT 17/08 A3003 RMK A01 T01670083  RH  057%=      5-min Rain = 0
KBI1 141227Z 18007KT 17/08 A3003 RMK A01 T01670083  RH  057%=      5-min Rain = 0
KBI1 141228Z 19007KT 17/08 A3003 RMK A01 T01670083  RH  058%=      5-min Rain = 0
KBI1 141229Z 19007KT 17/08 A3004 RMK A01 T01670084  RH  058%=      5-min Rain = 0
KBI1 141230Z 19007KT 17/08 A3004 RMK A01 T01670083  RH  058%=      5-min Rain = 0
KBI1 141231Z 20007KT 17/08 A3004 RMK A01 T01680083  RH  057%=      5-min Rain = 0
KBI1 141232Z 20006KT 17/08 A3004 RMK A01 T01680083  RH  057%=      5-min Rain = 0
KBI1 141233Z 20007KT 17/08 A3004 RMK A01 T01680084  RH  058%=      5-min Rain = 0
KBI1 141234Z 20006KT 17/08 A3004 RMK A01 T01680084  RH  057%=      5-min Rain = 0
KBI1 141235Z 20006KT 17/08 A3004 RMK A01 T01690084  RH  058%=      5-min Rain = 0
KBI1 141236Z 20007KT 17/09 A3004 RMK A01 T01680085  RH  058%=      5-min Rain = 0
KBI1 141237Z 20008KT 17/09 A3004 RMK A01 T01680086  RH  058%=      5-min Rain = 0
KBI1 141238Z 20008KT 17/09 A3004 RMK A01 T01680087  RH  059%=      5-min Rain = 0
KBI1 141239Z 20007KT 17/09 A3004 RMK A01 T01680089  RH  059%=      5-min Rain = 0
KBI1 141240Z 19007KT 17/09 A3004 RMK A01 T01680091  RH  060%=      5-min Rain = 0
KBI1 141241Z 20008KT 17/09 A3004 RMK A01 T01670093  RH  062%=      5-min Rain = 0
KBI1 141242Z 19008KT 17/09 A3004 RMK A01 T01660091  RH  061%=      5-min Rain = 0
KBI1 141243Z 20007KT 17/09 A3004 RMK A01 T01660093  RH  062%=      5-min Rain = 0
KBI1 141244Z 19007KT 17/10 A3004 RMK A01 T01660095  RH  063%=      5-min Rain = 0
KBI1 141245Z 20008KT 17/10 A3004 RMK A01 T01650097  RH  064%=      5-min Rain = 0
KBI1 141246Z 20009KT 17/10 A3004 RMK A01 T01650098  RH  065%=      5-min Rain = 0
KBI1 141247Z 20009KT 16/10 A3004 RMK A01 T01640098  RH  065%=      5-min Rain = 0
KBI1 141248Z 20009KT 16/10 A3004 RMK A01 T01640099  RH  065%=      5-min Rain = 0
KBI1 141249Z 20008KT 16/10 A3004 RMK A01 T01640099  RH  065%=      5-min Rain = 0
KBI1 141250Z 20008KT 16/10 A3005 RMK A01 T01640100  RH  066%=      5-min Rain = 0
KBI1 141251Z 20008KT 16/10 A3005 RMK A01 T01640100  RH  066%=      5-min Rain = 0
KBI1 141252Z 21008KT 16/10 A3005 RMK A01 T01640100  RH  066%=      5-min Rain = 0
KBI1 141253Z 20007KT 16/10 A3005 RMK A01 T01640101  RH  066%=      5-min Rain = 0
KBI1 141254Z 20008KT 16/10 A3005 RMK A01 T01640101  RH  066%=      5-min Rain = 0
KBI1 141255Z 20007KT 16/10 A3005 RMK A01 T01640102  RH  067%=      5-min Rain = 0
KBI1 141256Z 20007KT 16/10 A3005 RMK A01 T01630103  RH  067%=      5-min Rain = 0
KBI1 141257Z 20008KT 16/10 A3005 RMK A01 T01630104  RH  068%=      5-min Rain = 0
KBI1 141258Z 20008KT 16/10 A3005 RMK A01 T01630103  RH  068%=      5-min Rain = 0
KBI1 141259Z 20008KT 16/10 A3005 RMK A01 T01630103  RH  068%=      5-min Rain = 0
KBI1 141300Z 20008KT 16/10 A3005 RMK A01 T01630104  RH  068%=      5-min Rain = 0
KBI1 141301Z 20008KT 16/10 A3005 RMK A01 T01630104  RH  068%=      5-min Rain = 0
KBI1 141302Z 20008KT 16/10 A3005 RMK A01 T01620104  RH  068%=      5-min Rain = 0
KBI1 141303Z 21008KT 16/10 A3005 RMK A01 T01630104  RH  068%=      5-min Rain = 0
KBI1 141304Z 21008KT 16/10 A3005 RMK A01 T01630104  RH  068%=      5-min Rain = 0
KBI1 141305Z 21007KT 16/11 A3005 RMK A01 T01620105  RH  069%=      5-min Rain = 0
KBI1 141306Z 20008KT 16/11 A3005 RMK A01 T01620105  RH  068%=      5-min Rain = 0
KBI1 141307Z 20008KT 16/11 A3005 RMK A01 T01630106  RH  069%=      5-min Rain = 0
KBI1 141308Z 19007KT 16/11 A3005 RMK A01 T01630106  RH  069%=      5-min Rain = 0
KBI1 141309Z 19008KT 16/11 A3005 RMK A01 T01620106  RH  069%=      5-min Rain = 0
KBI1 141310Z 19007KT 16/11 A3005 RMK A01 T01620106  RH  069%=      5-min Rain = 0
KBI1 141311Z 19008KT 16/11 A3005 RMK A01 T01620107  RH  070%=      5-min Rain = 0
KBI1 141312Z 19007KT 16/11 A3005 RMK A01 T01620106  RH  069%=      5-min Rain = 0
KBI1 141313Z 19007KT 16/11 A3005 RMK A01 T01620108  RH  070%=      5-min Rain = 0
KBI1 141314Z 19007KT 16/11 A3005 RMK A01 T01620109  RH  071%=      5-min Rain = 0
KBI1 141315Z 19007KT 16/11 A3005 RMK A01 T01610109  RH  071%=      5-min Rain = 0
KBI1 141316Z 19007KT 16/11 A3005 RMK A01 T01610110  RH  072%=      5-min Rain = 0
KBI1 141317Z 19007KT 16/11 A3005 RMK A01 T01610111  RH  072%=      5-min Rain = 0
KBI1 141318Z 19007KT 16/11 A3005 RMK A01 T01610112  RH  073%=      5-min Rain = 0
KBI1 141319Z 19007KT 16/11 A3005 RMK A01 T01600113  RH  073%=      5-min Rain = 0
KBI1 141320Z 19009KT 16/11 A3005 RMK A01 T01600113  RH  074%=      5-min Rain = 0
KBI1 141321Z 19009KT 16/11 A3005 RMK A01 T01600113  RH  073%=      5-min Rain = 0
KBI1 141322Z 19009KT 16/11 A3005 RMK A01 T01610114  RH  074%=      5-min Rain = 0
KBI1 141323Z 19008KT 16/12 A3005 RMK A01 T01600116  RH  075%=      5-min Rain = 0
KBI1 141324Z 19008KT 16/12 A3005 RMK A01 T01590117  RH  076%=      5-min Rain = 0
KBI1 141325Z 19008KT 16/12 A3005 RMK A01 T01580118  RH  077%=      5-min Rain = 0
KBI1 141326Z 19009KT 16/12 A3005 RMK A01 T01570118  RH  078%=      5-min Rain = 0
KBI1 141327Z 19008KT 16/12 A3005 RMK A01 T01570119  RH  078%=      5-min Rain = 0
KBI1 141328Z 19008KT 16/12 A3005 RMK A01 T01570120  RH  078%=      5-min Rain = 0
KBI1 141329Z 19008KT 16/12 A3005 RMK A01 T01570120  RH  079%=      5-min Rain = 0
KBI1 141330Z 19008KT 16/12 A3005 RMK A01 T01570121  RH  080%=      5-min Rain = 0
KBI1 141331Z 19008KT 16/12 A3005 RMK A01 T01560122  RH  080%=      5-min Rain = 0
KBI1 141332Z 18008KT 16/12 A3005 RMK A01 T01560123  RH  081%=      5-min Rain = 0.01
KBI1 141333Z 18009KT 16/12 A3005 RMK A01 T01550123  RH  081%=      5-min Rain = 0
KBI1 141334Z 18008KT 16/12 A3005 RMK A01 T01550124  RH  082%=      5-min Rain = 0
KBI1 141335Z 18009KT 16/13 A3005 RMK A01 T01550125  RH  082%=      5-min Rain = 0
KBI1 141336Z 18009KT 16/13 A3005 RMK A01 T01550126  RH  083%=      5-min Rain = 0
KBI1 141337Z 18009KT 16/13 A3005 RMK A01 T01550126  RH  083%=      5-min Rain = 0
KBI1 141338Z 18010KT 16/13 A3005 RMK A01 T01550127  RH  083%=      5-min Rain = 0
KBI1 141339Z 18010KT 16/13 A3005 RMK A01 T01560129  RH  084%=      5-min Rain = 0
KBI1 141340Z 18010KT 16/13 A3005 RMK A01 T01560129  RH  084%=      5-min Rain = 0
KBI1 141341Z 18011KT 16/13 A3005 RMK A01 T01570129  RH  084%=      5-min Rain = 0
KBI1 141342Z 18009KT 16/13 A3005 RMK A01 T01570130  RH  084%=      5-min Rain = 0
KBI1 141343Z 18009KT 16/13 A3005 RMK A01 T01580130  RH  084%=      5-min Rain = 0
KBI1 141344Z 18009KT 16/13 A3005 RMK A01 T01570130  RH  084%=      5-min Rain = 0
KBI1 141345Z 18010KT 16/13 A3005 RMK A01 T01570131  RH  084%=      5-min Rain = 0
KBI1 141346Z 18010KT 16/13 A3005 RMK A01 T01570131  RH  084%=      5-min Rain = 0
KBI1 141347Z 18009KT 16/13 A3005 RMK A01 T01580131  RH  084%=      5-min Rain = 0
KBI1 141348Z 18009KT 16/13 A3005 RMK A01 T01580132  RH  085%=      5-min Rain = 0
KBI1 141349Z 18009KT 16/13 A3005 RMK A01 T01580132  RH  085%=      5-min Rain = 0
KBI1 141350Z 18009KT 16/13 A3005 RMK A01 T01580132  RH  085%=      5-min Rain = 0
KBI1 141351Z 18009KT 16/13 A3005 RMK A01 T01580133  RH  085%=      5-min Rain = 0
KBI1 141352Z 18008KT 16/13 A3005 RMK A01 T01570133  RH  085%=      5-min Rain = 0
KBI1 141353Z 18008KT 16/13 A3005 RMK A01 T01580133  RH  085%=      5-min Rain = 0
KBI1 141354Z 18008KT 16/13 A3005 RMK A01 T01570133  RH  085%=      5-min Rain = 0
KBI1 141355Z 18008KT 16/13 A3005 RMK A01 T01570133  RH  086%=      5-min Rain = 0
KBI1 141356Z 18009KT 16/13 A3005 RMK A01 T01570133  RH  085%=      5-min Rain = 0
KBI1 141357Z 17008KT 16/13 A3005 RMK A01 T01580133  RH  085%=      5-min Rain = 0
KBI1 141358Z 18008KT 16/13 A3005 RMK A01 T01570133  RH  085%=      5-min Rain = 0
KBI1 141359Z 17009KT 16/13 A3005 RMK A01 T01580134  RH  086%=      5-min Rain = 0
KBI1 141400Z 18008KT 16/13 A3006 RMK A01 T01580134  RH  086%=      5-min Rain = 0
KBI1 141401Z 18009KT 16/13 A3006 RMK A01 T01580134  RH  085%=      5-min Rain = 0
KBI1 141402Z 18009KT 16/13 A3006 RMK A01 T01580133  RH  085%=      5-min Rain = 0
KBI1 141403Z 18008KT 16/13 A3006 RMK A01 T01580134  RH  086%=      5-min Rain = 0
KBI1 141404Z 18008KT 16/13 A3006 RMK A01 T01580134  RH  086%=      5-min Rain = 0
KBI1 141405Z 18007KT 16/13 A3006 RMK A01 T01580134  RH  085%=      5-min Rain = 0
KBI1 141406Z 18008KT 16/14 A3006 RMK A01 T01580135  RH  086%=      5-min Rain = 0
KBI1 141407Z 19007KT 16/14 A3006 RMK A01 T01580135  RH  086%=      5-min Rain = 0
KBI1 141408Z 19008KT 16/14 A3006 RMK A01 T01590135  RH  086%=      5-min Rain = 0
KBI1 141409Z 18007KT 16/14 A3006 RMK A01 T01590135  RH  085%=      5-min Rain = 0
KBI1 141410Z 18007KT 16/14 A3006 RMK A01 T01590135  RH  085%=      5-min Rain = 0
KBI1 141411Z 18007KT 16/14 A3006 RMK A01 T01600135  RH  085%=      5-min Rain = 0
KBI1 141412Z 18007KT 16/14 A3006 RMK A01 T01600135  RH  085%=      5-min Rain = 0
KBI1 141413Z 19006KT 16/14 A3006 RMK A01 T01610135  RH  084%=      5-min Rain = 0
KBI1 141414Z 19005KT 16/14 A3006 RMK A01 T01610135  RH  085%=      5-min Rain = 0
KBI1 141415Z 18007KT 16/14 A3006 RMK A01 T01620136  RH  085%=      5-min Rain = 0
KBI1 141416Z 18007KT 16/14 A3006 RMK A01 T01620135  RH  084%=      5-min Rain = 0
KBI1 141417Z 18006KT 16/14 A3006 RMK A01 T01620135  RH  084%=      5-min Rain = 0
KBI1 141418Z 18007KT 16/14 A3006 RMK A01 T01620136  RH  084%=      5-min Rain = 0
KBI1 141419Z 18006KT 16/14 A3006 RMK A01 T01630135  RH  083%=      5-min Rain = 0
KBI1 141420Z 18006KT 16/14 A3006 RMK A01 T01630135  RH  084%=      5-min Rain = 0
KBI1 141421Z 17007KT 16/14 A3006 RMK A01 T01640137  RH  084%=      5-min Rain = 0
KBI1 141422Z 17008KT 16/14 A3006 RMK A01 T01640135  RH  083%=      5-min Rain = 0
KBI1 141423Z 17006KT 16/13 A3006 RMK A01 T01630134  RH  083%=      5-min Rain = 0
KBI1 141424Z 17007KT 16/14 A3006 RMK A01 T01640135  RH  083%=      5-min Rain = 0
KBI1 141425Z 17008KT 16/14 A3006 RMK A01 T01640135  RH  083%=      5-min Rain = 0
KBI1 141426Z 17009KT 16/13 A3006 RMK A01 T01640134  RH  083%=      5-min Rain = 0
KBI1 141427Z 17008KT 16/14 A3006 RMK A01 T01640135  RH  083%=      5-min Rain = 0
KBI1 141428Z 18008KT 17/14 A3006 RMK A01 T01650135  RH  082%=      5-min Rain = 0
KBI1 141429Z 18009KT 17/13 A3006 RMK A01 T01650134  RH  082%=      5-min Rain = 0
KBI1 141430Z 17007KT 17/13 A3006 RMK A01 T01650134  RH  082%=      5-min Rain = 0
KBI1 141431Z 17008KT 17/14 A3006 RMK A01 T01650136  RH  083%=      5-min Rain = 0
KBI1 141432Z 17008KT 17/14 A3006 RMK A01 T01660136  RH  083%=      5-min Rain = 0
KBI1 141433Z 17009KT 17/14 A3006 RMK A01 T01660136  RH  083%=      5-min Rain = 0
KBI1 141434Z 17007KT 17/14 A3006 RMK A01 T01660136  RH  082%=      5-min Rain = 0
KBI1 141435Z 18008KT 17/14 A3006 RMK A01 T01660136  RH  083%=      5-min Rain = 0
KBI1 141436Z 18009KT 17/14 A3006 RMK A01 T01660136  RH  083%=      5-min Rain = 0
KBI1 141437Z 18008KT 17/14 A3006 RMK A01 T01660136  RH  082%=      5-min Rain = 0
KBI1 141438Z 18008KT 17/14 A3006 RMK A01 T01660137  RH  083%=      5-min Rain = 0
KBI1 141439Z 18010KT 17/14 A3006 RMK A01 T01660137  RH  083%=      5-min Rain = 0
KBI1 141440Z 18009KT 17/14 A3006 RMK A01 T01660136  RH  082%=      5-min Rain = 0
KBI1 141441Z 19009KT 17/14 A3006 RMK A01 T01660136  RH  082%=      5-min Rain = 0
KBI1 141442Z 19010KT 17/14 A3006 RMK A01 T01660135  RH  082%=      5-min Rain = 0
KBI1 141443Z 19010KT 17/14 A3006 RMK A01 T01660135  RH  082%=      5-min Rain = 0
KBI1 141444Z 19009KT 17/14 A3007 RMK A01 T01660136  RH  082%=      5-min Rain = 0
KBI1 141445Z 19009KT 17/14 A3007 RMK A01 T01660136  RH  083%=      5-min Rain = 0
KBI1 141446Z 19008KT 17/14 A3007 RMK A01 T01660136  RH  083%=      5-min Rain = 0.01
KBI1 141447Z 19008KT 17/14 A3007 RMK A01 T01660137  RH  083%=      5-min Rain = 0
KBI1 141448Z 19009KT 17/14 A3007 RMK A01 T01660137  RH  083%=      5-min Rain = 0
KBI1 141449Z 19009KT 17/14 A3007 RMK A01 T01650137  RH  083%=      5-min Rain = 0
KBI1 141450Z 19011KT 17/14 A3007 RMK A01 T01650136  RH  083%=      5-min Rain = 0
KBI1 141451Z 18009KT 17/14 A3007 RMK A01 T01650136  RH  083%=      5-min Rain = 0
KBI1 141452Z 19009KT 17/14 A3007 RMK A01 T01650137  RH  083%=      5-min Rain = 0
KBI1 141453Z 19008KT 17/14 A3007 RMK A01 T01650138  RH  084%=      5-min Rain = 0
KBI1 141454Z 19010KT 17/14 A3007 RMK A01 T01650139  RH  085%=      5-min Rain = 0
KBI1 141455Z 19009KT 16/14 A3007 RMK A01 T01640138  RH  084%=      5-min Rain = 0
KBI1 141456Z 19008KT 17/14 A3007 RMK A01 T01650140  RH  085%=      5-min Rain = 0
KBI1 141457Z 19009KT 16/14 A3007 RMK A01 T01640138  RH  085%=      5-min Rain = 0
KBI1 141458Z 19007KT 16/14 A3007 RMK A01 T01640138  RH  085%=      5-min Rain = 0
KBI1 141459Z 18007KT 16/14 A3007 RMK A01 T01640140  RH  086%=      5-min Rain = 0
KBI1 141500Z 18008KT 16/14 A3007 RMK A01 T01640140  RH  085%=      5-min Rain = 0
KBI1 141501Z 18008KT 16/14 A3007 RMK A01 T01640140  RH  086%=      5-min Rain = 0
KBI1 141502Z 18010KT 16/14 A3007 RMK A01 T01640140  RH  086%=      5-min Rain = 0
KBI1 141503Z 18008KT 16/14 A3007 RMK A01 T01640140  RH  086%=      5-min Rain = 0
KBI1 141504Z 19008KT 16/14 A3007 RMK A01 T01640140  RH  086%=      5-min Rain = 0
KBI1 141505Z 19008KT 16/14 A3007 RMK A01 T01640141  RH  086%=      5-min Rain = 0
KBI1 141506Z 19008KT 16/14 A3007 RMK A01 T01640141  RH  086%=      5-min Rain = 0
KBI1 141507Z 19007KT 16/14 A3007 RMK A01 T01640142  RH  087%=      5-min Rain = 0
KBI1 141508Z 19008KT 17/14 A3007 RMK A01 T01650142  RH  086%=      5-min Rain = 0
KBI1 141509Z 19008KT 17/14 A3007 RMK A01 T01650141  RH  086%=      5-min Rain = 0
KBI1 141510Z 19007KT 17/14 A3007 RMK A01 T01650141  RH  086%=      5-min Rain = 0
KBI1 141511Z 19008KT 17/14 A3007 RMK A01 T01650141  RH  086%=      5-min Rain = 0
KBI1 141512Z 19006KT 17/14 A3007 RMK A01 T01650141  RH  086%=      5-min Rain = 0
KBI1 141513Z 18008KT 17/14 A3007 RMK A01 T01650142  RH  086%=      5-min Rain = 0
KBI1 141514Z 18007KT 17/14 A3006 RMK A01 T01650142  RH  086%=      5-min Rain = 0
KBI1 141515Z 18008KT 17/14 A3006 RMK A01 T01650142  RH  086%=      5-min Rain = 0
KBI1 141516Z 18007KT 17/14 A3006 RMK A01 T01650141  RH  086%=      5-min Rain = 0
KBI1 141517Z 18007KT 17/14 A3006 RMK A01 T01650142  RH  086%=      5-min Rain = 0
KBI1 141518Z 18007KT 17/14 A3006 RMK A01 T01660142  RH  086%=      5-min Rain = 0
KBI1 141519Z 17007KT 17/14 A3006 RMK A01 T01660142  RH  086%=      5-min Rain = 0
KBI1 141520Z 18006KT 17/14 A3006 RMK A01 T01660142  RH  086%=      5-min Rain = 0
KBI1 141521Z 18007KT 17/14 A3006 RMK A01 T01660142  RH  086%=      5-min Rain = 0
KBI1 141522Z 18007KT 17/14 A3006 RMK A01 T01660142  RH  086%=      5-min Rain = 0
KBI1 141523Z 18006KT 17/14 A3006 RMK A01 T01660142  RH  086%=      5-min Rain = 0
KBI1 141524Z 19007KT 17/14 A3006 RMK A01 T01660142  RH  086%=      5-min Rain = 0
KBI1 141525Z 18006KT 17/14 A3006 RMK A01 T01660141  RH  085%=      5-min Rain = 0
KBI1 141526Z 18006KT 17/14 A3007 RMK A01 T01660142  RH  086%=      5-min Rain = 0
KBI1 141527Z 19005KT 17/14 A3007 RMK A01 T01660142  RH  086%=      5-min Rain = 0
KBI1 141528Z 18006KT 17/14 A3007 RMK A01 T01660143  RH  086%=      5-min Rain = 0
KBI1 141529Z 19007KT 17/14 A3007 RMK A01 T01660144  RH  087%=      5-min Rain = 0
KBI1 141530Z 19007KT 17/14 A3007 RMK A01 T01660144  RH  087%=      5-min Rain = 0.01
KBI1 141531Z 19008KT 17/14 A3007 RMK A01 T01660143  RH  086%=      5-min Rain = 0
KBI1 141532Z 19007KT 17/14 A3007 RMK A01 T01670142  RH  086%=      5-min Rain = 0
KBI1 141533Z 18006KT 17/14 A3007 RMK A01 T01660143  RH  086%=      5-min Rain = 0
KBI1 141534Z 19007KT 17/14 A3007 RMK A01 T01670143  RH  086%=      5-min Rain = 0
KBI1 141535Z 19009KT 17/14 A3007 RMK A01 T01670141  RH  085%=      5-min Rain = 0
KBI1 141536Z 18007KT 17/14 A3007 RMK A01 T01660140  RH  085%=      5-min Rain = 0
KBI1 141537Z 18009KT 17/14 A3007 RMK A01 T01660141  RH  085%=      5-min Rain = 0
KBI1 141538Z 19008KT 17/14 A3007 RMK A01 T01660138  RH  083%=      5-min Rain = 0
KBI1 141539Z 19006KT 17/14 A3007 RMK A01 T01660139  RH  084%=      5-min Rain = 0
KBI1 141540Z 19007KT 17/14 A3007 RMK A01 T01670141  RH  085%=      5-min Rain = 0
KBI1 141541Z 18007KT 17/14 A3007 RMK A01 T01670141  RH  085%=      5-min Rain = 0
KBI1 141542Z 19006KT 17/14 A3007 RMK A01 T01670141  RH  085%=      5-min Rain = 0
KBI1 141543Z 18005KT 17/14 A3007 RMK A01 T01670141  RH  085%=      5-min Rain = 0
KBI1 141544Z 18007KT 17/14 A3007 RMK A01 T01660142  RH  085%=      5-min Rain = 0
KBI1 141545Z 18007KT 17/14 A3007 RMK A01 T01660141  RH  085%=      5-min Rain = 0
KBI1 141546Z 18007KT 17/14 A3006 RMK A01 T01660141  RH  085%=      5-min Rain = 0
KBI1 141547Z 17006KT 17/14 A3006 RMK A01 T01650141  RH  085%=      5-min Rain = 0
KBI1 141548Z 17006KT 17/14 A3006 RMK A01 T01650142  RH  086%=      5-min Rain = 0
KBI1 141549Z 17007KT 17/14 A3006 RMK A01 T01650142  RH  086%=      5-min Rain = 0
KBI1 141550Z 17007KT 17/14 A3006 RMK A01 T01650142  RH  086%=      5-min Rain = 0
KBI1 141551Z 17008KT 17/14 A3006 RMK A01 T01650142  RH  086%=      5-min Rain = 0
KBI1 141552Z 17006KT 16/14 A3006 RMK A01 T01640142  RH  087%=      5-min Rain = 0
KBI1 141553Z 16006KT 16/14 A3006 RMK A01 T01640143  RH  087%=      5-min Rain = 0
KBI1 141554Z 16006KT 16/14 A3006 RMK A01 T01640144  RH  088%=      5-min Rain = 0
KBI1 141555Z 16006KT 16/14 A3006 RMK A01 T01640144  RH  088%=      5-min Rain = 0.01
KBI1 141556Z 16008KT 16/14 A3006 RMK A01 T01640144  RH  088%=      5-min Rain = 0
KBI1 141557Z 16009KT 16/14 A3006 RMK A01 T01630143  RH  088%=      5-min Rain = 0
KBI1 141558Z 17009KT 16/14 A3006 RMK A01 T01630143  RH  088%=      5-min Rain = 0
KBI1 141559Z 17010KT 16/14 A3006 RMK A01 T01630142  RH  087%=      5-min Rain = 0
KBI1 141600Z 18010KT 16/14 A3006 RMK A01 T01630141  RH  087%=      5-min Rain = 0
KBI1 141601Z 17012KT 16/14 A3006 RMK A01 T01620141  RH  087%=      5-min Rain = 0
KBI1 141602Z 18012KT 16/14 A3006 RMK A01 T01620140  RH  087%=      5-min Rain = 0
KBI1 141603Z 18010KT 16/14 A3006 RMK A01 T01610139  RH  086%=      5-min Rain = 0
KBI1 141604Z 17010KT 16/14 A3006 RMK A01 T01620140  RH  087%=      5-min Rain = 0
KBI1 141605Z 17009KT 16/14 A3005 RMK A01 T01620141  RH  088%=      5-min Rain = 0
KBI1 141606Z 17009KT 16/14 A3006 RMK A01 T01610142  RH  088%=      5-min Rain = 0
KBI1 141607Z 17009KT 16/14 A3006 RMK A01 T01620143  RH  089%=      5-min Rain = 0.01
KBI1 141608Z 18012KT 16/14 A3006 RMK A01 T01610143  RH  089%=      5-min Rain = 0
KBI1 141609Z 18010KT 16/14 A3006 RMK A01 T01610142  RH  089%=      5-min Rain = 0
KBI1 141610Z 17009KT 16/14 A3006 RMK A01 T01600142  RH  089%=      5-min Rain = 0
KBI1 141611Z 18008KT 16/14 A3006 RMK A01 T01610143  RH  089%=      5-min Rain = 0
KBI1 141612Z 18007KT 16/14 A3005 RMK A01 T01610144  RH  090%=      5-min Rain = 0
KBI1 141613Z 18007KT 16/15 A3005 RMK A01 T01610145  RH  090%=      5-min Rain = 0
KBI1 141614Z 18008KT 16/15 A3005 RMK A01 T01610145  RH  090%=      5-min Rain = 0
KBI1 141615Z 17008KT 16/14 A3005 RMK A01 T01600144  RH  090%=      5-min Rain = 0
KBI1 141616Z 17008KT 16/14 A3005 RMK A01 T01600143  RH  090%=      5-min Rain = 0
KBI1 141617Z 17007KT 16/14 A3005 RMK A01 T01600144  RH  090%=      5-min Rain = 0
KBI1 141618Z 17007KT 16/14 A3005 RMK A01 T01600144  RH  090%=      5-min Rain = 0
KBI1 141619Z 17006KT 16/15 A3005 RMK A01 T01600145  RH  090%=      5-min Rain = 0
KBI1 141620Z 17006KT 16/15 A3005 RMK A01 T01610145  RH  090%=      5-min Rain = 0
KBI1 141621Z 18005KT 16/15 A3005 RMK A01 T01610145  RH  090%=      5-min Rain = 0
KBI1 141622Z 19005KT 16/15 A3006 RMK A01 T01610146  RH  090%=      5-min Rain = 0
KBI1 141623Z 19005KT 16/15 A3006 RMK A01 T01630148  RH  091%=      5-min Rain = 0
KBI1 141624Z 20004KT 16/15 A3006 RMK A01 T01630148  RH  091%=      5-min Rain = 0.01
KBI1 141625Z 20004KT 16/15 A3006 RMK A01 T01640150  RH  091%=      5-min Rain = 0
KBI1 141626Z 19005KT 16/15 A3006 RMK A01 T01640149  RH  091%=      5-min Rain = 0
KBI1 141627Z 18004KT 17/15 A3006 RMK A01 T01650149  RH  091%=      5-min Rain = 0
KBI1 141628Z 19007KT 17/15 A3006 RMK A01 T01650151  RH  091%=      5-min Rain = 0
KBI1 141629Z 18006KT 17/15 A3006 RMK A01 T01650149  RH  090%=      5-min Rain = 0
KBI1 141630Z 19005KT 17/15 A3006 RMK A01 T01660151  RH  091%=      5-min Rain = 0
KBI1 141631Z 19005KT 17/15 A3006 RMK A01 T01670152  RH  091%=      5-min Rain = 0
KBI1 141632Z 19005KT 17/15 A3006 RMK A01 T01660151  RH  090%=      5-min Rain = 0
KBI1 141633Z 18006KT 17/15 A3006 RMK A01 T01660151  RH  091%=      5-min Rain = 0
KBI1 141634Z 18007KT 17/15 A3006 RMK A01 T01660150  RH  090%=      5-min Rain = 0
KBI1 141635Z 19007KT 17/15 A3006 RMK A01 T01660150  RH  090%=      5-min Rain = 0
KBI1 141636Z 19006KT 17/15 A3006 RMK A01 T01660149  RH  090%=      5-min Rain = 0
KBI1 141637Z 20005KT 17/15 A3006 RMK A01 T01660150  RH  090%=      5-min Rain = 0
KBI1 141638Z 21005KT 17/15 A3006 RMK A01 T01660151  RH  091%=      5-min Rain = 0
KBI1 141639Z 20006KT 17/15 A3006 RMK A01 T01660150  RH  090%=      5-min Rain = 0
KBI1 141640Z 20006KT 17/15 A3006 RMK A01 T01660150  RH  090%=      5-min Rain = 0
KBI1 141641Z 22003KT 17/15 A3006 RMK A01 T01660149  RH  090%=      5-min Rain = 0
KBI1 141642Z 22004KT 17/15 A3006 RMK A01 T01660150  RH  090%=      5-min Rain = 0
KBI1 141643Z 21004KT 17/15 A3006 RMK A01 T01670151  RH  090%=      5-min Rain = 0
KBI1 141644Z 20004KT 17/15 A3006 RMK A01 T01670150  RH  090%=      5-min Rain = 0
KBI1 141645Z 22003KT 17/15 A3006 RMK A01 T01670150  RH  090%=      5-min Rain = 0
KBI1 141646Z 20005KT 17/15 A3006 RMK A01 T01670151  RH  090%=      5-min Rain = 0
KBI1 141647Z 22004KT 17/15 A3006 RMK A01 T01680150  RH  090%=      5-min Rain = 0
KBI1 141648Z 22005KT 17/15 A3006 RMK A01 T01680150  RH  089%=      5-min Rain = 0
KBI1 141649Z 23005KT 17/15 A3006 RMK A01 T01670149  RH  089%=      5-min Rain = 0
KBI1 141650Z 23004KT 17/15 A3006 RMK A01 T01680150  RH  089%=      5-min Rain = 0
KBI1 141651Z 24005KT 17/15 A3006 RMK A01 T01680151  RH  090%=      5-min Rain = 0
KBI1 141652Z 24006KT 17/15 A3006 RMK A01 T01680151  RH  089%=      5-min Rain = 0
KBI1 141653Z 25005KT 17/15 A3006 RMK A01 T01680150  RH  089%=      5-min Rain = 0
KBI1 141654Z 24005KT 17/15 A3006 RMK A01 T01680151  RH  090%=      5-min Rain = 0
KBI1 141655Z 24003KT 17/15 A3006 RMK A01 T01680151  RH  090%=      5-min Rain = 0
KBI1 141656Z 23004KT 17/15 A3006 RMK A01 T01690151  RH  089%=      5-min Rain = 0
KBI1 141657Z 23004KT 17/15 A3006 RMK A01 T01680151  RH  089%=      5-min Rain = 0
KBI1 141658Z 22005KT 17/15 A3006 RMK A01 T01690151  RH  089%=      5-min Rain = 0
KBI1 141659Z 21005KT 17/15 A3005 RMK A01 T01680149  RH  088%=      5-min Rain = 0
KBI1 141700Z 19003KT 17/15 A3005 RMK A01 T01680149  RH  088%=      5-min Rain = 0
KBI1 141701Z 20004KT 17/15 A3005 RMK A01 T01690151  RH  089%=      5-min Rain = 0
KBI1 141702Z 20003KT 17/15 A3005 RMK A01 T01690151  RH  089%=      5-min Rain = 0
KBI1 141703Z 20003KT 17/15 A3005 RMK A01 T01690150  RH  088%=      5-min Rain = 0
KBI1 141704Z 20003KT 17/15 A3005 RMK A01 T01700151  RH  089%=      5-min Rain = 0
KBI1 141705Z 20003KT 17/15 A3005 RMK A01 T01700151  RH  089%=      5-min Rain = 0
KBI1 141706Z 21003KT 17/15 A3006 RMK A01 T01700151  RH  089%=      5-min Rain = 0
KBI1 141707Z 21004KT 17/15 A3006 RMK A01 T01700152  RH  089%=      5-min Rain = 0
KBI1 141708Z 21005KT 17/15 A3006 RMK A01 T01710150  RH  088%=      5-min Rain = 0
KBI1 141709Z 22005KT 17/15 A3006 RMK A01 T01700151  RH  088%=      5-min Rain = 0
KBI1 141710Z 21004KT 17/15 A3005 RMK A01 T01700150  RH  088%=      5-min Rain = 0
KBI1 141711Z 20005KT 17/15 A3005 RMK A01 T01700150  RH  088%=      5-min Rain = 0
KBI1 141712Z 20005KT 17/15 A3005 RMK A01 T01700150  RH  088%=      5-min Rain = 0
KBI1 141713Z 19005KT 17/15 A3005 RMK A01 T01700151  RH  088%=      5-min Rain = 0
KBI1 141714Z 20008KT 17/15 A3006 RMK A01 T01710151  RH  088%=      5-min Rain = 0
KBI1 141715Z 21008KT 17/15 A3006 RMK A01 T01710149  RH  087%=      5-min Rain = 0
KBI1 141716Z 21007KT 17/15 A3006 RMK A01 T01710148  RH  087%=      5-min Rain = 0
KBI1 141717Z 21007KT 17/15 A3006 RMK A01 T01700148  RH  086%=      5-min Rain = 0
KBI1 141718Z 21007KT 17/15 A3006 RMK A01 T01700148  RH  087%=      5-min Rain = 0
KBI1 141719Z 21009KT 17/15 A3006 RMK A01 T01710148  RH  086%=      5-min Rain = 0
KBI1 141720Z 20009KT 17/15 A3006 RMK A01 T01710148  RH  086%=      5-min Rain = 0
KBI1 141721Z 20009KT 17/15 A3006 RMK A01 T01710148  RH  086%=      5-min Rain = 0
KBI1 141722Z 20007KT 17/15 A3006 RMK A01 T01720149  RH  087%=      5-min Rain = 0
KBI1 141723Z 20008KT 17/15 A3006 RMK A01 T01720151  RH  087%=      5-min Rain = 0
KBI1 141724Z 20007KT 17/15 A3006 RMK A01 T01730151  RH  087%=      5-min Rain = 0
KBI1 141725Z 21007KT 17/15 A3006 RMK A01 T01740153  RH  088%=      5-min Rain = 0
KBI1 141726Z 21008KT 17/15 A3006 RMK A01 T01740152  RH  087%=      5-min Rain = 0
KBI1 141727Z 20006KT 17/15 A3006 RMK A01 T01740151  RH  087%=      5-min Rain = 0
KBI1 141728Z 21006KT 17/15 A3006 RMK A01 T01740153  RH  087%=      5-min Rain = 0
KBI1 141729Z 21007KT 17/15 A3006 RMK A01 T01740152  RH  087%=      5-min Rain = 0
KBI1 141730Z 21008KT 17/15 A3006 RMK A01 T01740151  RH  086%=      5-min Rain = 0
KBI1 141731Z 21008KT 17/15 A3006 RMK A01 T01740151  RH  086%=      5-min Rain = 0
KBI1 141732Z 20006KT 17/15 A3006 RMK A01 T01740152  RH  087%=      5-min Rain = 0
KBI1 141733Z 21005KT 17/15 A3006 RMK A01 T01740152  RH  087%=      5-min Rain = 0
KBI1 141734Z 21005KT 18/15 A3006 RMK A01 T01750153  RH  087%=      5-min Rain = 0
KBI1 141735Z 20006KT 18/15 A3006 RMK A01 T01750153  RH  087%=      5-min Rain = 0
KBI1 141736Z 18006KT 18/15 A3005 RMK A01 T01750152  RH  087%=      5-min Rain = 0
KBI1 141737Z 19007KT 18/15 A3005 RMK A01 T01750153  RH  087%=      5-min Rain = 0
KBI1 141738Z 20008KT 18/15 A3005 RMK A01 T01750152  RH  086%=      5-min Rain = 0
KBI1 141739Z 20008KT 18/15 A3005 RMK A01 T01750151  RH  086%=      5-min Rain = 0
KBI1 141740Z 21007KT 18/15 A3006 RMK A01 T01750151  RH  086%=      5-min Rain = 0
KBI1 141741Z 21008KT 18/15 A3006 RMK A01 T01750151  RH  086%=      5-min Rain = 0
KBI1 141742Z 22007KT 18/15 A3006 RMK A01 T01750151  RH  085%=      5-min Rain = 0
KBI1 141743Z 22007KT 18/15 A3006 RMK A01 T01760153  RH  086%=      5-min Rain = 0
KBI1 141744Z 23007KT 18/15 A3006 RMK A01 T01770154  RH  086%=      5-min Rain = 0
KBI1 141745Z 22007KT 18/16 A3006 RMK A01 T01780155  RH  086%=      5-min Rain = 0
KBI1 141746Z 22006KT 18/16 A3006 RMK A01 T01790156  RH  087%=      5-min Rain = 0
KBI1 141747Z 22006KT 18/16 A3006 RMK A01 T01790155  RH  086%=      5-min Rain = 0
KBI1 141748Z 22006KT 18/16 A3006 RMK A01 T01800156  RH  086%=      5-min Rain = 0
KBI1 141749Z 22007KT 18/16 A3006 RMK A01 T01800156  RH  085%=      5-min Rain = 0
KBI1 141750Z 21006KT 18/16 A3006 RMK A01 T01800155  RH  085%=      5-min Rain = 0
KBI1 141751Z 21006KT 18/15 A3006 RMK A01 T01800154  RH  085%=      5-min Rain = 0
KBI1 141752Z 21005KT 18/16 A3006 RMK A01 T01800155  RH  085%=      5-min Rain = 0
KBI1 141753Z 21006KT 18/16 A3006 RMK A01 T01810156  RH  086%=      5-min Rain = 0
KBI1 141754Z 21006KT 18/16 A3005 RMK A01 T01820157  RH  086%=      5-min Rain = 0
KBI1 141755Z 21005KT 18/16 A3005 RMK A01 T01820155  RH  085%=      5-min Rain = 0
KBI1 141756Z 21004KT 18/16 A3005 RMK A01 T01810155  RH  085%=      5-min Rain = 0
KBI1 141757Z 19006KT 18/16 A3005 RMK A01 T01820158  RH  086%=      5-min Rain = 0
KBI1 141758Z 20005KT 18/16 A3005 RMK A01 T01830157  RH  085%=      5-min Rain = 0
KBI1 141759Z 20005KT 18/16 A3005 RMK A01 T01830157  RH  084%=      5-min Rain = 0
KBI1 141800Z 19005KT 18/16 A3005 RMK A01 T01840158  RH  085%=      5-min Rain = 0
KBI1 141801Z 20005KT 19/16 A3005 RMK A01 T01860160  RH  085%=      5-min Rain = 0
KBI1 141802Z 20005KT 19/16 A3005 RMK A01 T01870160  RH  084%=      5-min Rain = 0
KBI1 141803Z 21005KT 19/16 A3005 RMK A01 T01880160  RH  084%=      5-min Rain = 0
KBI1 141804Z 20005KT 19/16 A3005 RMK A01 T01880158  RH  083%=      5-min Rain = 0
KBI1 141805Z 20005KT 19/16 A3004 RMK A01 T01890162  RH  084%=      5-min Rain = 0
KBI1 141806Z 19006KT 19/16 A3004 RMK A01 T01900159  RH  082%=      5-min Rain = 0
KBI1 141807Z 19007KT 19/16 A3004 RMK A01 T01900158  RH  082%=      5-min Rain = 0
KBI1 141808Z 19007KT 19/16 A3004 RMK A01 T01900157  RH  081%=      5-min Rain = 0
KBI1 141809Z 18007KT 19/16 A3004 RMK A01 T01900159  RH  082%=      5-min Rain = 0
KBI1 141810Z 18007KT 19/16 A3004 RMK A01 T01920160  RH  082%=      5-min Rain = 0
KBI1 141811Z 19007KT 19/16 A3004 RMK A01 T01920157  RH  080%=      5-min Rain = 0
KBI1 141812Z 19007KT 19/16 A3004 RMK A01 T01930160  RH  081%=      5-min Rain = 0
KBI1 141813Z 19006KT 19/16 A3004 RMK A01 T01940157  RH  079%=      5-min Rain = 0
KBI1 141814Z 20008KT 19/16 A3004 RMK A01 T01940157  RH  079%=      5-min Rain = 0
KBI1 141815Z 20007KT 20/16 A3004 RMK A01 T01950156  RH  078%=      5-min Rain = 0
KBI1 141816Z 19007KT 20/16 A3004 RMK A01 T01950158  RH  079%=      5-min Rain = 0
KBI1 141817Z 20008KT 20/16 A3004 RMK A01 T01960161  RH  080%=      5-min Rain = 0
KBI1 141818Z 19006KT 20/16 A3004 RMK A01 T01970163  RH  080%=      5-min Rain = 0
KBI1 141819Z 19009KT 20/16 A3004 RMK A01 T01990161  RH  079%=      5-min Rain = 0
KBI1 141820Z 20009KT 20/16 A3004 RMK A01 T01980158  RH  077%=      5-min Rain = 0
KBI1 141821Z 20008KT 20/16 A3004 RMK A01 T01980160  RH  078%=      5-min Rain = 0
KBI1 141822Z 20009KT 20/16 A3003 RMK A01 T01990159  RH  078%=      5-min Rain = 0
KBI1 141823Z 20008KT 20/16 A3003 RMK A01 T01990158  RH  077%=      5-min Rain = 0
KBI1 141824Z 20007KT 20/16 A3003 RMK A01 T01990160  RH  078%=      5-min Rain = 0
KBI1 141825Z 20009KT 20/16 A3003 RMK A01 T02010160  RH  077%=      5-min Rain = 0
KBI1 141826Z 18009KT 20/16 A3003 RMK A01 T02010157  RH  076%=      5-min Rain = 0
KBI1 141827Z 18010KT 20/16 A3003 RMK A01 T02000156  RH  075%=      5-min Rain = 0
KBI1 141828Z 18009KT 20/16 A3003 RMK A01 T02000156  RH  075%=      5-min Rain = 0
KBI1 141829Z 19008KT 20/16 A3003 RMK A01 T02010155  RH  075%=      5-min Rain = 0
KBI1 141830Z 20009KT 20/16 A3003 RMK A01 T02010157  RH  076%=      5-min Rain = 0
KBI1 141831Z 20009KT 20/16 A3003 RMK A01 T02020156  RH  075%=      5-min Rain = 0
KBI1 141832Z 21009KT 20/16 A3003 RMK A01 T02020157  RH  075%=      5-min Rain = 0
KBI1 141833Z 21009KT 20/16 A3003 RMK A01 T02010157  RH  076%=      5-min Rain = 0
KBI1 141834Z 20008KT 20/16 A3003 RMK A01 T02020157  RH  075%=      5-min Rain = 0
KBI1 141835Z 19009KT 20/16 A3003 RMK A01 T02030156  RH  074%=      5-min Rain = 0
KBI1 141836Z 19009KT 20/15 A3003 RMK A01 T02020154  RH  074%=      5-min Rain = 0
KBI1 141837Z 19009KT 20/16 A3003 RMK A01 T02030156  RH  074%=      5-min Rain = 0
KBI1 141838Z 19009KT 20/16 A3003 RMK A01 T02030155  RH  074%=      5-min Rain = 0
KBI1 141839Z 18008KT 20/15 A3003 RMK A01 T02030154  RH  073%=      5-min Rain = 0
KBI1 141840Z 20008KT 20/16 A3003 RMK A01 T02030155  RH  074%=      5-min Rain = 0
KBI1 141841Z 19007KT 20/16 A3002 RMK A01 T02040157  RH  074%=      5-min Rain = 0
KBI1 141842Z 18010KT 21/16 A3002 RMK A01 T02050155  RH  073%=      5-min Rain = 0
KBI1 141843Z 18008KT 21/15 A3002 RMK A01 T02050154  RH  073%=      5-min Rain = 0
KBI1 141844Z 19009KT 21/16 A3002 RMK A01 T02050155  RH  073%=      5-min Rain = 0
KBI1 141845Z 19010KT 21/15 A3002 RMK A01 T02050154  RH  072%=      5-min Rain = 0
KBI1 141846Z 19009KT 21/15 A3002 RMK A01 T02050152  RH  072%=      5-min Rain = 0
KBI1 141847Z 19008KT 21/15 A3002 RMK A01 T02050154  RH  073%=      5-min Rain = 0
KBI1 141848Z 20009KT 21/15 A3002 RMK A01 T02050153  RH  072%=      5-min Rain = 0
KBI1 141849Z 19008KT 21/15 A3002 RMK A01 T02050154  RH  073%=      5-min Rain = 0
KBI1 141850Z 19009KT 21/15 A3002 RMK A01 T02050154  RH  073%=      5-min Rain = 0
KBI1 141851Z 19008KT 21/15 A3002 RMK A01 T02050154  RH  072%=      5-min Rain = 0
KBI1 141852Z 20008KT 21/16 A3002 RMK A01 T02050155  RH  073%=      5-min Rain = 0
KBI1 141853Z 20009KT 21/15 A3002 RMK A01 T02050154  RH  073%=      5-min Rain = 0
KBI1 141854Z 19009KT 21/15 A3002 RMK A01 T02050154  RH  073%=      5-min Rain = 0
KBI1 141855Z 19008KT 21/15 A3002 RMK A01 T02050153  RH  072%=      5-min Rain = 0
KBI1 141856Z 19007KT 21/15 A3002 RMK A01 T02050154  RH  072%=      5-min Rain = 0
KBI1 141857Z 18007KT 21/15 A3002 RMK A01 T02050154  RH  073%=      5-min Rain = 0
KBI1 141858Z 18009KT 21/15 A3002 RMK A01 T02050153  RH  072%=      5-min Rain = 0
KBI1 141859Z 18008KT 21/15 A3002 RMK A01 T02050153  RH  072%=      5-min Rain = 0
KBI1 141900Z 18007KT 21/15 A3001 RMK A01 T02050154  RH  072%=      5-min Rain = 0
KBI1 141901Z 19007KT 21/15 A3001 RMK A01 T02050154  RH  072%=      5-min Rain = 0
KBI1 141902Z 19008KT 21/16 A3001 RMK A01 T02060155  RH  073%=      5-min Rain = 0
KBI1 141903Z 20007KT 21/16 A3001 RMK A01 T02060155  RH  072%=      5-min Rain = 0
KBI1 141904Z 20007KT 21/15 A3001 RMK A01 T02070154  RH  071%=      5-min Rain = 0
KBI1 141905Z 19005KT 21/16 A3001 RMK A01 T02070155  RH  072%=      5-min Rain = 0
KBI1 141906Z 20007KT 21/16 A3001 RMK A01 T02080157  RH  072%=      5-min Rain = 0
KBI1 141907Z 20008KT 21/15 A3001 RMK A01 T02080153  RH  071%=      5-min Rain = 0
KBI1 141908Z 20010KT 21/15 A3001 RMK A01 T02080152  RH  070%=      5-min Rain = 0
KBI1 141909Z 20009KT 21/15 A3001 RMK A01 T02080152  RH  070%=      5-min Rain = 0
KBI1 141910Z 20008KT 21/15 A3001 RMK A01 T02090153  RH  070%=      5-min Rain = 0
KBI1 141911Z 20008KT 21/15 A3001 RMK A01 T02080153  RH  071%=      5-min Rain = 0
KBI1 141912Z 18009KT 21/15 A3001 RMK A01 T02080154  RH  071%=      5-min Rain = 0
KBI1 141913Z 19007KT 21/15 A3001 RMK A01 T02080154  RH  071%=      5-min Rain = 0
KBI1 141914Z 19009KT 21/15 A3001 RMK A01 T02090154  RH  071%=      5-min Rain = 0
KBI1 141915Z 19009KT 21/15 A3001 RMK A01 T02090153  RH  070%=      5-min Rain = 0
KBI1 141916Z 19008KT 21/15 A3001 RMK A01 T02090153  RH  071%=      5-min Rain = 0
KBI1 141917Z 18007KT 21/15 A3001 RMK A01 T02090154  RH  071%=      5-min Rain = 0
KBI1 141918Z 18007KT 21/16 A3001 RMK A01 T02100155  RH  071%=      5-min Rain = 0
KBI1 141919Z 19007KT 21/15 A30 RMK A01 T02100154  RH  070%=      5-min Rain = 0
KBI1 141920Z 19006KT 21/16 A30 RMK A01 T02110155  RH  071%=      5-min Rain = 0
KBI1 141921Z 19008KT 21/16 A30 RMK A01 T02120156  RH  070%=      5-min Rain = 0
KBI1 141922Z 20008KT 21/16 A30 RMK A01 T02130155  RH  069%=      5-min Rain = 0
KBI1 141923Z 20008KT 21/15 A30 RMK A01 T02130153  RH  068%=      5-min Rain = 0
KBI1 141924Z 20009KT 21/15 A30 RMK A01 T02140152  RH  068%=      5-min Rain = 0
KBI1 141925Z 20008KT 21/15 A30 RMK A01 T02140153  RH  068%=      5-min Rain = 0
KBI1 141926Z 20008KT 21/15 A30 RMK A01 T02140153  RH  068%=      5-min Rain = 0
KBI1 141927Z 19007KT 21/15 A30 RMK A01 T02140153  RH  068%=      5-min Rain = 0
KBI1 141928Z 20007KT 22/16 A30 RMK A01 T02150155  RH  069%=      5-min Rain = 0
KBI1 141929Z 20008KT 22/16 A30 RMK A01 T02170156  RH  068%=      5-min Rain = 0
KBI1 141930Z 20009KT 22/15 A30 RMK A01 T02180153  RH  066%=      5-min Rain = 0
KBI1 141931Z 19007KT 22/16 A30 RMK A01 T02180156  RH  068%=      5-min Rain = 0
KBI1 141932Z 19008KT 22/15 A30 RMK A01 T02180154  RH  067%=      5-min Rain = 0
KBI1 141933Z 19008KT 22/16 A30 RMK A01 T02180155  RH  067%=      5-min Rain = 0
KBI1 141934Z 20009KT 22/15 A30 RMK A01 T02190154  RH  067%=      5-min Rain = 0
KBI1 141935Z 20009KT 22/15 A30 RMK A01 T02190154  RH  067%=      5-min Rain = 0
KBI1 141936Z 19009KT 22/16 A30 RMK A01 T02200155  RH  066%=      5-min Rain = 0
KBI1 141937Z 20009KT 22/16 A30 RMK A01 T02200155  RH  066%=      5-min Rain = 0
KBI1 141938Z 21009KT 22/16 A30 RMK A01 T02210155  RH  066%=      5-min Rain = 0
KBI1 141939Z 20009KT 22/15 A30 RMK A01 T02210154  RH  066%=      5-min Rain = 0
KBI1 141940Z 20008KT 22/15 A30 RMK A01 T02200154  RH  066%=      5-min Rain = 0
KBI1 141941Z 21007KT 22/15 A30 RMK A01 T02210154  RH  066%=      5-min Rain = 0
KBI1 141942Z 21009KT 22/15 A30 RMK A01 T02210154  RH  066%=      5-min Rain = 0
KBI1 141943Z 20009KT 22/15 A30 RMK A01 T02210153  RH  065%=      5-min Rain = 0
KBI1 141944Z 20009KT 22/15 A30 RMK A01 T02200153  RH  066%=      5-min Rain = 0
KBI1 141945Z 21008KT 22/16 A30 RMK A01 T02200155  RH  066%=      5-min Rain = 0
KBI1 141946Z 21008KT 22/16 A30 RMK A01 T02210155  RH  066%=      5-min Rain = 0
KBI1 141947Z 20009KT 22/15 A30 RMK A01 T02210154  RH  065%=      5-min Rain = 0
KBI1 141948Z 20009KT 22/15 A30 RMK A01 T02210152  RH  065%=      5-min Rain = 0
KBI1 141949Z 19007KT 22/15 A2999 RMK A01 T02200154  RH  066%=      5-min Rain = 0
KBI1 141950Z 19009KT 22/16 A2999 RMK A01 T02210155  RH  066%=      5-min Rain = 0
KBI1 141951Z 20008KT 22/15 A2999 RMK A01 T02220154  RH  065%=      5-min Rain = 0
KBI1 141952Z 20009KT 22/15 A2999 RMK A01 T02210153  RH  065%=      5-min Rain = 0
KBI1 141953Z 20008KT 22/15 A2999 RMK A01 T02210153  RH  065%=      5-min Rain = 0
KBI1 141954Z 19010KT 22/15 A2999 RMK A01 T02200153  RH  065%=      5-min Rain = 0
KBI1 141955Z 20009KT 22/15 A2999 RMK A01 T02200153  RH  066%=      5-min Rain = 0
KBI1 141956Z 20009KT 22/15 A2999 RMK A01 T02190153  RH  066%=      5-min Rain = 0
KBI1 141957Z 19008KT 22/15 A2999 RMK A01 T02190154  RH  067%=      5-min Rain = 0
KBI1 141958Z 19008KT 22/15 A2998 RMK A01 T02200154  RH  066%=      5-min Rain = 0
KBI1 141959Z 20008KT 22/15 A2998 RMK A01 T02200154  RH  066%=      5-min Rain = 0
KBI1 142000Z 19008KT 22/15 A2998 RMK A01 T02200154  RH  066%=      5-min Rain = 0
KBI1 142001Z 18010KT 22/15 A2998 RMK A01 T02210153  RH  066%=      5-min Rain = 0
KBI1 142002Z 19007KT 22/15 A2998 RMK A01 T02210154  RH  066%=      5-min Rain = 0
KBI1 142003Z 19007KT 22/15 A2998 RMK A01 T02210154  RH  066%=      5-min Rain = 0
KBI1 142004Z 19006KT 22/16 A2998 RMK A01 T02210155  RH  066%=      5-min Rain = 0
KBI1 142005Z 20007KT 22/16 A2998 RMK A01 T02210156  RH  067%=      5-min Rain = 0
KBI1 142006Z 19008KT 22/15 A2998 RMK A01 T02210153  RH  065%=      5-min Rain = 0
KBI1 142007Z 20008KT 22/15 A2998 RMK A01 T02210153  RH  066%=      5-min Rain = 0
KBI1 142008Z 20007KT 22/15 A2998 RMK A01 T02200154  RH  066%=      5-min Rain = 0
KBI1 142009Z 20007KT 22/15 A2998 RMK A01 T02200154  RH  066%=      5-min Rain = 0
KBI1 142010Z 20007KT 22/15 A2998 RMK A01 T02200154  RH  066%=      5-min Rain = 0
KBI1 142011Z 21007KT 22/15 A2998 RMK A01 T02210154  RH  066%=      5-min Rain = 0
KBI1 142012Z 19007KT 22/15 A2998 RMK A01 T02210154  RH  066%=      5-min Rain = 0
KBI1 142013Z 19007KT 22/15 A2998 RMK A01 T02210154  RH  066%=      5-min Rain = 0
KBI1 142014Z 19007KT 22/15 A2998 RMK A01 T02210154  RH  066%=      5-min Rain = 0
KBI1 142015Z 19008KT 22/15 A2998 RMK A01 T02210154  RH  066%=      5-min Rain = 0
KBI1 142016Z 19006KT 22/15 A2998 RMK A01 T02210153  RH  065%=      5-min Rain = 0
KBI1 142017Z 19007KT 22/15 A2998 RMK A01 T02210154  RH  066%=      5-min Rain = 0
KBI1 142018Z 19007KT 22/15 A2998 RMK A01 T02210153  RH  065%=      5-min Rain = 0
KBI1 142019Z 19008KT 22/16 A2998 RMK A01 T02220155  RH  066%=      5-min Rain = 0
KBI1 142020Z 20007KT 22/15 A2998 RMK A01 T02220154  RH  065%=      5-min Rain = 0
KBI1 142021Z 19008KT 22/15 A2998 RMK A01 T02210153  RH  065%=      5-min Rain = 0
KBI1 142022Z 20006KT 22/15 A2998 RMK A01 T02220154  RH  065%=      5-min Rain = 0
KBI1 142023Z 19007KT 22/15 A2998 RMK A01 T02220154  RH  065%=      5-min Rain = 0
KBI1 142024Z 19007KT 22/15 A2998 RMK A01 T02230153  RH  065%=      5-min Rain = 0
KBI1 142025Z 19006KT 22/15 A2998 RMK A01 T02230154  RH  065%=      5-min Rain = 0
KBI1 142026Z 20006KT 22/16 A2998 RMK A01 T02240155  RH  065%=      5-min Rain = 0
KBI1 142027Z 19007KT 23/16 A2998 RMK A01 T02260157  RH  065%=      5-min Rain = 0
KBI1 142028Z 19008KT 23/16 A2998 RMK A01 T02260155  RH  064%=      5-min Rain = 0
KBI1 142029Z 20007KT 23/15 A2998 RMK A01 T02260154  RH  064%=      5-min Rain = 0
KBI1 142030Z 20007KT 23/16 A2998 RMK A01 T02270155  RH  064%=      5-min Rain = 0
KBI1 142031Z 20007KT 23/16 A2998 RMK A01 T02270155  RH  064%=      5-min Rain = 0
KBI1 142032Z 20007KT 23/16 A2998 RMK A01 T02280156  RH  064%=      5-min Rain = 0
KBI1 142033Z 20007KT 23/16 A2998 RMK A01 T02290155  RH  063%=      5-min Rain = 0
KBI1 142034Z 20005KT 23/16 A2998 RMK A01 T02300157  RH  064%=      5-min Rain = 0
KBI1 142035Z 20005KT 23/16 A2998 RMK A01 T02310157  RH  063%=      5-min Rain = 0
KBI1 142036Z 19006KT 23/16 A2998 RMK A01 T02320157  RH  063%=      5-min Rain = 0
KBI1 142037Z 19007KT 23/16 A2998 RMK A01 T02320155  RH  062%=      5-min Rain = 0
KBI1 142038Z 19006KT 23/16 A2998 RMK A01 T02320156  RH  062%=      5-min Rain = 0
KBI1 142039Z 20006KT 23/16 A2998 RMK A01 T02320156  RH  062%=      5-min Rain = 0
KBI1 142040Z 21007KT 23/16 A2998 RMK A01 T02320156  RH  062%=      5-min Rain = 0
KBI1 142041Z 21007KT 23/15 A2998 RMK A01 T02330154  RH  061%=      5-min Rain = 0
KBI1 142042Z 20008KT 23/16 A2998 RMK A01 T02330155  RH  061%=      5-min Rain = 0
KBI1 142043Z 21007KT 23/16 A2998 RMK A01 T02330155  RH  061%=      5-min Rain = 0
KBI1 142044Z 22007KT 23/15 A2998 RMK A01 T02330154  RH  061%=      5-min Rain = 0
KBI1 142045Z 22010KT 23/16 A2998 RMK A01 T02340156  RH  061%=      5-min Rain = 0
KBI1 142046Z 21008KT 23/15 A2998 RMK A01 T02340154  RH  061%=      5-min Rain = 0
KBI1 142047Z 21008KT 23/15 A2998 RMK A01 T02330154  RH  061%=      5-min Rain = 0
KBI1 142048Z 20008KT 23/15 A2998 RMK A01 T02330153  RH  061%=      5-min Rain = 0
KBI1 142049Z 20008KT 23/15 A2998 RMK A01 T02330153  RH  061%=      5-min Rain = 0
KBI1 142050Z 21008KT 23/15 A2998 RMK A01 T02330154  RH  061%=      5-min Rain = 0
KBI1 142051Z 21008KT 23/15 A2998 RMK A01 T02340153  RH  061%=      5-min Rain = 0
KBI1 142052Z 22008KT 23/15 A2998 RMK A01 T02330154  RH  061%=      5-min Rain = 0
KBI1 142053Z 21007KT 23/15 A2998 RMK A01 T02340154  RH  061%=      5-min Rain = 0
KBI1 142054Z 20006KT 23/15 A2998 RMK A01 T02340154  RH  061%=      5-min Rain = 0
KBI1 142055Z 20008KT 24/16 A2998 RMK A01 T02360156  RH  061%=      5-min Rain = 0
KBI1 142056Z 20008KT 24/16 A2998 RMK A01 T02370156  RH  060%=      5-min Rain = 0
KBI1 142057Z 21006KT 24/16 A2998 RMK A01 T02380156  RH  060%=      5-min Rain = 0
KBI1 142058Z 19007KT 24/16 A2998 RMK A01 T02390156  RH  060%=      5-min Rain = 0
KBI1 142059Z 22008KT 24/16 A2998 RMK A01 T02390156  RH  060%=      5-min Rain = 0
KBI1 142100Z 23008KT 24/15 A2998 RMK A01 T02400154  RH  059%=      5-min Rain = 0
KBI1 142101Z 23009KT 24/16 A2998 RMK A01 T02400155  RH  059%=      5-min Rain = 0
KBI1 142102Z 23008KT 24/15 A2998 RMK A01 T02400153  RH  058%=      5-min Rain = 0
KBI1 142103Z 22005KT 24/15 A2998 RMK A01 T02390153  RH  059%=      5-min Rain = 0
KBI1 142104Z 22007G12KT 24/16 A2998 RMK A01 T02390156  RH  059%=      5-min Rain = 0
KBI1 142105Z 21009KT 24/15 A2998 RMK A01 T02400154  RH  058%=      5-min Rain = 0
KBI1 142106Z 21009KT 24/15 A2998 RMK A01 T02400152  RH  058%=      5-min Rain = 0
KBI1 142107Z 20009KT 24/15 A2997 RMK A01 T02400151  RH  058%=      5-min Rain = 0
KBI1 142108Z 20010KT 24/15 A2997 RMK A01 T02390153  RH  058%=      5-min Rain = 0
KBI1 142109Z 21007KT 24/15 A2997 RMK A01 T02390153  RH  058%=      5-min Rain = 0
KBI1 142110Z 23007KT 24/15 A2997 RMK A01 T02400153  RH  058%=      5-min Rain = 0
KBI1 142111Z 21007KT 24/15 A2997 RMK A01 T02400153  RH  058%=      5-min Rain = 0
KBI1 142112Z 22006KT 24/15 A2997 RMK A01 T02400153  RH  058%=      5-min Rain = 0
KBI1 142113Z 20007KT 24/15 A2997 RMK A01 T02400153  RH  058%=      5-min Rain = 0
KBI1 142114Z 19008KT 24/15 A2997 RMK A01 T02400154  RH  058%=      5-min Rain = 0
KBI1 142115Z 20006KT 24/16 A2997 RMK A01 T02420156  RH  059%=      5-min Rain = 0
KBI1 142116Z 19006KT 24/16 A2997 RMK A01 T02440157  RH  058%=      5-min Rain = 0
KBI1 142117Z 21005KT 24/16 A2997 RMK A01 T02440155  RH  058%=      5-min Rain = 0
KBI1 142118Z 19006KT 24/16 A2997 RMK A01 T02440156  RH  058%=      5-min Rain = 0
KBI1 142119Z 20006KT 25/16 A2997 RMK A01 T02450157  RH  058%=      5-min Rain = 0
KBI1 142120Z 21005KT 25/16 A2997 RMK A01 T02450157  RH  058%=      5-min Rain = 0
KBI1 142121Z 21007KT 25/16 A2997 RMK A01 T02460156  RH  057%=      5-min Rain = 0
KBI1 142122Z 20009KT 25/15 A2997 RMK A01 T02470153  RH  056%=      5-min Rain = 0
KBI1 142123Z 20011KT 25/15 A2997 RMK A01 T02460150  RH  055%=      5-min Rain = 0
KBI1 142124Z 21010KT 25/15 A2997 RMK A01 T02450149  RH  055%=      5-min Rain = 0
KBI1 142125Z 20010KT 25/15 A2997 RMK A01 T02450148  RH  055%=      5-min Rain = 0
KBI1 142126Z 20010KT 25/15 A2997 RMK A01 T02450150  RH  055%=      5-min Rain = 0
KBI1 142127Z 20010KT 25/15 A2997 RMK A01 T02450148  RH  054%=      5-min Rain = 0
KBI1 142128Z 20009KT 25/15 A2997 RMK A01 T02450147  RH  054%=      5-min Rain = 0
KBI1 142129Z 21009KT 24/15 A2997 RMK A01 T02440147  RH  055%=      5-min Rain = 0
KBI1 142130Z 21009KT 24/15 A2997 RMK A01 T02440147  RH  055%=      5-min Rain = 0
KBI1 142131Z 19009KT 25/15 A2997 RMK A01 T02450148  RH  055%=      5-min Rain = 0
KBI1 142132Z 20009KT 25/15 A2997 RMK A01 T02450146  RH  054%=      5-min Rain = 0
KBI1 142133Z 20009KT 25/15 A2997 RMK A01 T02450148  RH  055%=      5-min Rain = 0
KBI1 142134Z 21009KT 25/15 A2997 RMK A01 T02460148  RH  054%=      5-min Rain = 0
KBI1 142135Z 21010KT 25/15 A2997 RMK A01 T02470147  RH  054%=      5-min Rain = 0
KBI1 142136Z 21010KT 25/15 A2997 RMK A01 T02460146  RH  054%=      5-min Rain = 0
KBI1 142137Z 21011KT 25/15 A2997 RMK A01 T02460146  RH  054%=      5-min Rain = 0
KBI1 142138Z 20007KT 25/15 A2997 RMK A01 T02460146  RH  054%=      5-min Rain = 0
KBI1 142139Z 21006KT 25/15 A2997 RMK A01 T02460148  RH  054%=      5-min Rain = 0
KBI1 142140Z 22008KT 25/15 A2997 RMK A01 T02480149  RH  054%=      5-min Rain = 0
KBI1 142141Z 21009KT 25/15 A2997 RMK A01 T02490147  RH  053%=      5-min Rain = 0
KBI1 142142Z 22011KT 25/15 A2997 RMK A01 T02480145  RH  053%=      5-min Rain = 0
KBI1 142143Z 22008KT 25/15 A2997 RMK A01 T02480145  RH  053%=      5-min Rain = 0
KBI1 142144Z 22008KT 25/15 A2997 RMK A01 T02480148  RH  054%=      5-min Rain = 0
KBI1 142145Z 23008KT 25/15 A2997 RMK A01 T02490146  RH  053%=      5-min Rain = 0
KBI1 142146Z 22008KT 25/15 A2997 RMK A01 T02490148  RH  053%=      5-min Rain = 0
KBI1 142147Z 21009KT 25/15 A2997 RMK A01 T02490146  RH  053%=      5-min Rain = 0
KBI1 142148Z 24009KT 25/15 A2997 RMK A01 T02480146  RH  053%=      5-min Rain = 0
KBI1 142149Z 25009KT 25/15 A2997 RMK A01 T02480146  RH  053%=      5-min Rain = 0
KBI1 142150Z 24008KT 25/15 A2997 RMK A01 T02480146  RH  053%=      5-min Rain = 0
KBI1 142151Z 22007KT 25/15 A2997 RMK A01 T02470146  RH  053%=      5-min Rain = 0
KBI1 142152Z 21007KT 25/15 A2997 RMK A01 T02460148  RH  054%=      5-min Rain = 0
KBI1 142153Z 21009KT 25/15 A2997 RMK A01 T02470147  RH  054%=      5-min Rain = 0
KBI1 142154Z 20008KT 25/15 A2997 RMK A01 T02460147  RH  054%=      5-min Rain = 0
KBI1 142155Z 20007KT 25/15 A2997 RMK A01 T02460147  RH  054%=      5-min Rain = 0
KBI1 142156Z 20008KT 25/15 A2997 RMK A01 T02450147  RH  054%=      5-min Rain = 0
KBI1 142157Z 22007KT 25/15 A2997 RMK A01 T02450149  RH  055%=      5-min Rain = 0
KBI1 142158Z 22008KT 25/15 A2997 RMK A01 T02460147  RH  054%=      5-min Rain = 0
KBI1 142159Z 22007KT 25/15 A2997 RMK A01 T02460148  RH  054%=      5-min Rain = 0
KBI1 142200Z 21006KT 25/15 A2997 RMK A01 T02460149  RH  055%=      5-min Rain = 0
KBI1 142201Z 21008KT 25/15 A2997 RMK A01 T02460148  RH  054%=      5-min Rain = 0
KBI1 142202Z 20007KT 25/15 A2997 RMK A01 T02470148  RH  054%=      5-min Rain = 0
KBI1 142203Z 22006KT 25/15 A2997 RMK A01 T02480149  RH  054%=      5-min Rain = 0
KBI1 142204Z 22006KT 25/15 A2997 RMK A01 T02480148  RH  054%=      5-min Rain = 0
KBI1 142205Z 20006KT 25/15 A2997 RMK A01 T02490150  RH  054%=      5-min Rain = 0
KBI1 142206Z 21006KT 25/15 A2997 RMK A01 T02500151  RH  054%=      5-min Rain = 0
KBI1 142207Z 21008KT 25/15 A2997 RMK A01 T02510151  RH  054%=      5-min Rain = 0
KBI1 142208Z 20008KT 25/15 A2997 RMK A01 T02520149  RH  053%=      5-min Rain = 0
KBI1 142209Z 19007KT 25/15 A2997 RMK A01 T02510151  RH  054%=      5-min Rain = 0
KBI1 142210Z 20008KT 25/15 A2997 RMK A01 T02510150  RH  054%=      5-min Rain = 0
KBI1 142211Z 20007KT 25/15 A2997 RMK A01 T02510150  RH  053%=      5-min Rain = 0
KBI1 142212Z 21010KT 25/15 A2997 RMK A01 T02500149  RH  053%=      5-min Rain = 0
KBI1 142213Z 21010KT 25/15 A2997 RMK A01 T02490148  RH  053%=      5-min Rain = 0
KBI1 142214Z 21008KT 25/15 A2997 RMK A01 T02480147  RH  053%=      5-min Rain = 0
KBI1 142215Z 21006KT 25/15 A2997 RMK A01 T02480149  RH  054%=      5-min Rain = 0
KBI1 142216Z 20006KT 25/15 A2997 RMK A01 T02480150  RH  054%=      5-min Rain = 0
KBI1 142217Z 21009KT 25/15 A2997 RMK A01 T02490149  RH  054%=      5-min Rain = 0
KBI1 142218Z 21009KT 25/15 A2997 RMK A01 T02490149  RH  054%=      5-min Rain = 0
KBI1 142219Z 21007KT 25/15 A2997 RMK A01 T02480148  RH  054%=      5-min Rain = 0
KBI1 142220Z 21007KT 25/15 A2997 RMK A01 T02480148  RH  054%=      5-min Rain = 0
KBI1 142221Z 21008KT 25/15 A2997 RMK A01 T02480148  RH  054%=      5-min Rain = 0
KBI1 142222Z 22006KT 25/15 A2997 RMK A01 T02480149  RH  054%=      5-min Rain = 0
KBI1 142223Z 22008KT 25/15 A2997 RMK A01 T02480149  RH  054%=      5-min Rain = 0
KBI1 142224Z 22006KT 25/15 A2997 RMK A01 T02480150  RH  054%=      5-min Rain = 0
KBI1 142225Z 22008KT 25/15 A2997 RMK A01 T02480151  RH  055%=      5-min Rain = 0
KBI1 142226Z 22009KT 25/15 A2997 RMK A01 T02480149  RH  054%=      5-min Rain = 0
KBI1 142227Z 22008KT 25/15 A2997 RMK A01 T02470148  RH  054%=      5-min Rain = 0
KBI1 142228Z 21007KT 25/15 A2997 RMK A01 T02460149  RH  055%=      5-min Rain = 0
KBI1 142229Z 21006KT 25/15 A2997 RMK A01 T02460150  RH  055%=      5-min Rain = 0
KBI1 142230Z 21006KT 25/15 A2997 RMK A01 T02460151  RH  055%=      5-min Rain = 0
KBI1 142231Z 21007KT 25/15 A2997 RMK A01 T02460149  RH  055%=      5-min Rain = 0
KBI1 142232Z 21007KT 25/15 A2997 RMK A01 T02460149  RH  055%=      5-min Rain = 0
KBI1 142233Z 22007KT 25/15 A2997 RMK A01 T02450149  RH  055%=      5-min Rain = 0
KBI1 142234Z 21008KT 25/15 A2997 RMK A01 T02450150  RH  055%=      5-min Rain = 0
KBI1 142235Z 21008KT 25/15 A2997 RMK A01 T02450149  RH  055%=      5-min Rain = 0
KBI1 142236Z 21007KT 25/15 A2997 RMK A01 T02450149  RH  055%=      5-min Rain = 0
KBI1 142237Z 21006KT 24/15 A2998 RMK A01 T02440150  RH  055%=      5-min Rain = 0
KBI1 142238Z 20006KT 24/15 A2998 RMK A01 T02440150  RH  056%=      5-min Rain = 0
KBI1 142239Z 20006KT 25/15 A2997 RMK A01 T02450150  RH  056%=      5-min Rain = 0
KBI1 142240Z 20006KT 24/15 A2997 RMK A01 T02440149  RH  055%=      5-min Rain = 0
KBI1 142241Z 20006KT 24/15 A2997 RMK A01 T02440149  RH  055%=      5-min Rain = 0
KBI1 142242Z 20007KT 24/15 A2997 RMK A01 T02440149  RH  055%=      5-min Rain = 0
KBI1 142243Z 19006KT 24/15 A2997 RMK A01 T02440150  RH  056%=      5-min Rain = 0
KBI1 142244Z 20006KT 24/15 A2997 RMK A01 T02440149  RH  056%=      5-min Rain = 0
KBI1 142245Z 20007KT 24/15 A2997 RMK A01 T02440149  RH  055%=      5-min Rain = 0
KBI1 142246Z 21007KT 24/15 A2997 RMK A01 T02440149  RH  055%=      5-min Rain = 0
KBI1 142247Z 21006KT 24/15 A2997 RMK A01 T02440150  RH  056%=      5-min Rain = 0
KBI1 142248Z 20007KT 24/15 A2997 RMK A01 T02440149  RH  056%=      5-min Rain = 0
KBI1 142249Z 21005KT 24/15 A2997 RMK A01 T02430150  RH  056%=      5-min Rain = 0
KBI1 142250Z 20005KT 24/15 A2997 RMK A01 T02430150  RH  056%=      5-min Rain = 0
KBI1 142251Z 20005KT 24/15 A2997 RMK A01 T02430150  RH  056%=      5-min Rain = 0
KBI1 142252Z 20006KT 24/15 A2997 RMK A01 T02430150  RH  056%=      5-min Rain = 0
KBI1 142253Z 20005KT 24/15 A2997 RMK A01 T02420149  RH  056%=      5-min Rain = 0
KBI1 142254Z 20006KT 24/15 A2997 RMK A01 T02420150  RH  056%=      5-min Rain = 0
KBI1 142255Z 20006KT 24/15 A2997 RMK A01 T02420149  RH  056%=      5-min Rain = 0
KBI1 142256Z 21006KT 24/15 A2997 RMK A01 T02420150  RH  057%=      5-min Rain = 0
KBI1 142257Z 20006KT 24/15 A2997 RMK A01 T02410149  RH  056%=      5-min Rain = 0
KBI1 142258Z 19005KT 24/15 A2997 RMK A01 T02410151  RH  057%=      5-min Rain = 0
KBI1 142259Z 20005KT 24/15 A2997 RMK A01 T02410151  RH  057%=      5-min Rain = 0
KBI1 142300Z 19005KT 24/15 A2997 RMK A01 T02410152  RH  057%=      5-min Rain = 0
KBI1 142301Z 19005KT 24/15 A2997 RMK A01 T02400151  RH  057%=      5-min Rain = 0
KBI1 142302Z 19004KT 24/15 A2997 RMK A01 T02400151  RH  057%=      5-min Rain = 0
KBI1 142303Z 19005KT 24/15 A2997 RMK A01 T02400150  RH  057%=      5-min Rain = 0
KBI1 142304Z 19005KT 24/15 A2997 RMK A01 T02400150  RH  057%=      5-min Rain = 0
KBI1 142305Z 19005KT 24/15 A2997 RMK A01 T02400151  RH  057%=      5-min Rain = 0
KBI1 142306Z 19005KT 24/15 A2997 RMK A01 T02400151  RH  057%=      5-min Rain = 0
KBI1 142307Z 19005KT 24/15 A2997 RMK A01 T02410152  RH  058%=      5-min Rain = 0
KBI1 142308Z 20005KT 24/15 A2997 RMK A01 T02400150  RH  057%=      5-min Rain = 0
KBI1 142309Z 19005KT 24/15 A2997 RMK A01 T02400151  RH  057%=      5-min Rain = 0
KBI1 142310Z 19005KT 24/15 A2997 RMK A01 T02400151  RH  057%=      5-min Rain = 0
KBI1 142311Z 19005KT 24/15 A2997 RMK A01 T02400151  RH  058%=      5-min Rain = 0
KBI1 142312Z 19005KT 24/15 A2997 RMK A01 T02400151  RH  058%=      5-min Rain = 0
KBI1 142313Z 18005KT 24/15 A2997 RMK A01 T02400151  RH  057%=      5-min Rain = 0
KBI1 142314Z 18006KT 24/15 A2997 RMK A01 T02400152  RH  058%=      5-min Rain = 0
KBI1 142315Z 18005KT 24/15 A2997 RMK A01 T02400151  RH  058%=      5-min Rain = 0
KBI1 142316Z 18006KT 24/15 A2997 RMK A01 T02390152  RH  058%=      5-min Rain = 0
KBI1 142317Z 18007KT 24/15 A2997 RMK A01 T02400151  RH  058%=      5-min Rain = 0
KBI1 142318Z 18006KT 24/15 A2997 RMK A01 T02400151  RH  058%=      5-min Rain = 0
KBI1 142319Z 18007KT 24/15 A2997 RMK A01 T02400151  RH  058%=      5-min Rain = 0
KBI1 142320Z 18006KT 24/15 A2997 RMK A01 T02400152  RH  058%=      5-min Rain = 0
KBI1 142321Z 18007KT 24/15 A2997 RMK A01 T02390151  RH  058%=      5-min Rain = 0
KBI1 142322Z 18006KT 24/15 A2996 RMK A01 T02400151  RH  058%=      5-min Rain = 0
KBI1 142323Z 19007KT 24/15 A2996 RMK A01 T02400151  RH  058%=      5-min Rain = 0
KBI1 142324Z 19007KT 24/15 A2997 RMK A01 T02400150  RH  057%=      5-min Rain = 0
KBI1 142325Z 19007KT 24/15 A2997 RMK A01 T02390150  RH  057%=      5-min Rain = 0
KBI1 142326Z 20006KT 24/15 A2997 RMK A01 T02390151  RH  058%=      5-min Rain = 0
KBI1 142327Z 19006KT 24/15 A2997 RMK A01 T02390151  RH  058%=      5-min Rain = 0
KBI1 142328Z 19007KT 24/15 A2997 RMK A01 T02390151  RH  058%=      5-min Rain = 0
KBI1 142329Z 19006KT 24/15 A2996 RMK A01 T02390151  RH  058%=      5-min Rain = 0
KBI1 142330Z 19006KT 24/15 A2996 RMK A01 T02380151  RH  058%=      5-min Rain = 0
KBI1 142331Z 19006KT 24/15 A2996 RMK A01 T02380151  RH  058%=      5-min Rain = 0
KBI1 142332Z 19008KT 24/15 A2996 RMK A01 T02380151  RH  058%=      5-min Rain = 0
KBI1 142333Z 19008KT 24/15 A2996 RMK A01 T02380150  RH  058%=      5-min Rain = 0
KBI1 142334Z 19007KT 24/15 A2996 RMK A01 T02380150  RH  058%=      5-min Rain = 0
KBI1 142335Z 19007KT 24/15 A2996 RMK A01 T02380151  RH  058%=      5-min Rain = 0
KBI1 142336Z 19008KT 24/15 A2996 RMK A01 T02380150  RH  058%=      5-min Rain = 0
KBI1 142337Z 19007KT 24/15 A2996 RMK A01 T02380150  RH  058%=      5-min Rain = 0
KBI1 142338Z 19008KT 24/15 A2996 RMK A01 T02380150  RH  058%=      5-min Rain = 0
KBI1 142339Z 19007KT 24/15 A2996 RMK A01 T02380150  RH  058%=      5-min Rain = 0
KBI1 142340Z 19007KT 24/15 A2996 RMK A01 T02370151  RH  058%=      5-min Rain = 0
KBI1 142341Z 19007KT 24/15 A2996 RMK A01 T02370151  RH  058%=      5-min Rain = 0
KBI1 142342Z 19007KT 24/15 A2996 RMK A01 T02370150  RH  058%=      5-min Rain = 0
KBI1 142343Z 19007KT 24/15 A2997 RMK A01 T02360150  RH  058%=      5-min Rain = 0
KBI1 142344Z 19005KT 24/15 A2997 RMK A01 T02360150  RH  058%=      5-min Rain = 0
KBI1 142345Z 19007KT 24/15 A2997 RMK A01 T02360150  RH  058%=      5-min Rain = 0
KBI1 142346Z 19006KT 24/15 A2997 RMK A01 T02360150  RH  058%=      5-min Rain = 0
KBI1 142347Z 19006KT 24/15 A2997 RMK A01 T02360149  RH  058%=      5-min Rain = 0
KBI1 142348Z 19006KT 24/15 A2997 RMK A01 T02370149  RH  058%=      5-min Rain = 0
KBI1 142349Z 19005KT 24/15 A2997 RMK A01 T02360150  RH  058%=      5-min Rain = 0
KBI1 142350Z 19005KT 24/15 A2997 RMK A01 T02360150  RH  058%=      5-min Rain = 0
KBI1 142351Z 19006KT 24/15 A2997 RMK A01 T02350150  RH  059%=      5-min Rain = 0
KBI1 142352Z 19005KT 24/15 A2997 RMK A01 T02350150  RH  059%=      5-min Rain = 0
KBI1 142353Z 19005KT 23/15 A2997 RMK A01 T02340151  RH  059%=      5-min Rain = 0
KBI1 142354Z 19005KT 23/15 A2997 RMK A01 T02340150  RH  059%=      5-min Rain = 0
KBI1 142355Z 19005KT 23/15 A2997 RMK A01 T02330150  RH  059%=      5-min Rain = 0
KBI1 142356Z 19004KT 23/15 A2997 RMK A01 T02330150  RH  060%=      5-min Rain = 0
KBI1 142357Z 19004KT 23/15 A2997 RMK A01 T02320150  RH  060%=      5-min Rain = 0
KBI1 142358Z 19004KT 23/15 A2997 RMK A01 T02320150  RH  060%=      5-min Rain = 0
KBI1 142359Z 19004KT 23/15 A2997 RMK A01 T02320150  RH  060%=      5-min Rain = 0
KBI1 150000Z 19003KT 23/15 A2997 RMK A01 T02310150  RH  060%=      5-min Rain = 0
KBI1 150001Z 19003KT 23/15 A2997 RMK A01 T02310150  RH  060%=      5-min Rain = 0
KBI1 150002Z 19003KT 23/15 A2997 RMK A01 T02310150  RH  060%=      5-min Rain = 0
KBI1 150003Z 19003KT 23/15 A2997 RMK A01 T02300150  RH  061%=      5-min Rain = 0
KBI1 150004Z 18003KT 23/15 A2997 RMK A01 T02300150  RH  061%=      5-min Rain = 0
KBI1 150005Z 18003KT 23/15 A2997 RMK A01 T02290150  RH  061%=      5-min Rain = 0
KBI1 150006Z 18004KT 23/15 A2997 RMK A01 T02290150  RH  061%=      5-min Rain = 0
KBI1 150007Z 19004KT 23/15 A2997 RMK A01 T02290150  RH  061%=      5-min Rain = 0
KBI1 150008Z 19004KT 23/15 A2997 RMK A01 T02280150  RH  061%=      5-min Rain = 0
KBI1 150009Z 19004KT 23/15 A2997 RMK A01 T02280151  RH  062%=      5-min Rain = 0
KBI1 150010Z 19005KT 23/15 A2997 RMK A01 T02270151  RH  062%=      5-min Rain = 0
KBI1 150011Z 18004KT 23/15 A2997 RMK A01 T02260151  RH  062%=      5-min Rain = 0
KBI1 150012Z 18004KT 23/15 A2997 RMK A01 T02260151  RH  063%=      5-min Rain = 0
KBI1 150013Z 18004KT 23/15 A2997 RMK A01 T02250151  RH  063%=      5-min Rain = 0
KBI1 150014Z 18004KT 22/15 A2997 RMK A01 T02240151  RH  063%=      5-min Rain = 0
KBI1 150015Z 18005KT 22/15 A2997 RMK A01 T02240151  RH  063%=      5-min Rain = 0
KBI1 150016Z 18004KT 22/15 A2997 RMK A01 T02240151  RH  063%=      5-min Rain = 0
KBI1 150017Z 18005KT 22/15 A2997 RMK A01 T02240151  RH  063%=      5-min Rain = 0
KBI1 150018Z 18005KT 22/15 A2997 RMK A01 T02240151  RH  063%=      5-min Rain = 0
KBI1 150019Z 18005KT 22/15 A2997 RMK A01 T02240151  RH  063%=      5-min Rain = 0
KBI1 150020Z 18004KT 22/15 A2997 RMK A01 T02240151  RH  063%=      5-min Rain = 0
KBI1 150021Z 18004KT 22/15 A2997 RMK A01 T02230151  RH  063%=      5-min Rain = 0
KBI1 150022Z 18004KT 22/15 A2997 RMK A01 T02230151  RH  064%=      5-min Rain = 0
KBI1 150023Z 18004KT 22/15 A2997 RMK A01 T02220150  RH  064%=      5-min Rain = 0
KBI1 150024Z 18004KT 22/15 A2997 RMK A01 T02220150  RH  064%=      5-min Rain = 0
KBI1 150025Z 17004KT 22/15 A2997 RMK A01 T02210151  RH  064%=      5-min Rain = 0
KBI1 150026Z 17005KT 22/15 A2997 RMK A01 T02210151  RH  064%=      5-min Rain = 0
KBI1 150027Z 17005KT 22/15 A2997 RMK A01 T02200151  RH  065%=      5-min Rain = 0
KBI1 150028Z 17006KT 22/15 A2997 RMK A01 T02200151  RH  065%=      5-min Rain = 0
KBI1 150029Z 17006KT 22/15 A2997 RMK A01 T02190151  RH  065%=      5-min Rain = 0
KBI1 150030Z 17005KT 22/15 A2997 RMK A01 T02190152  RH  065%=      5-min Rain = 0
KBI1 150031Z 17005KT 22/15 A2997 RMK A01 T02190151  RH  065%=      5-min Rain = 0
KBI1 150032Z 17005KT 22/15 A2997 RMK A01 T02190151  RH  065%=      5-min Rain = 0
KBI1 150033Z 17005KT 22/15 A2997 RMK A01 T02190150  RH  065%=      5-min Rain = 0
KBI1 150034Z 17005KT 22/15 A2997 RMK A01 T02190150  RH  065%=      5-min Rain = 0
KBI1 150035Z 17004KT 22/15 A2997 RMK A01 T02190150  RH  065%=      5-min Rain = 0
KBI1 150036Z 17004KT 22/15 A2997 RMK A01 T02190150  RH  065%=      5-min Rain = 0
KBI1 150037Z 17004KT 22/15 A2997 RMK A01 T02200149  RH  064%=      5-min Rain = 0
KBI1 150038Z 17004KT 22/15 A2997 RMK A01 T02200150  RH  064%=      5-min Rain = 0
KBI1 150039Z 17004KT 22/15 A2997 RMK A01 T02200150  RH  064%=      5-min Rain = 0
KBI1 150040Z 17004KT 22/15 A2997 RMK A01 T02200150  RH  065%=      5-min Rain = 0
KBI1 150041Z 17004KT 22/15 A2997 RMK A01 T02190150  RH  065%=      5-min Rain = 0
KBI1 150042Z 17004KT 22/15 A2997 RMK A01 T02190149  RH  065%=      5-min Rain = 0
KBI1 150043Z 17003KT 22/15 A2997 RMK A01 T02190150  RH  065%=      5-min Rain = 0
KBI1 150044Z 17004KT 22/15 A2997 RMK A01 T02180150  RH  065%=      5-min Rain = 0
KBI1 150045Z 17004KT 22/15 A2997 RMK A01 T02170150  RH  066%=      5-min Rain = 0
KBI1 150046Z 17004KT 22/15 A2997 RMK A01 T02170150  RH  066%=      5-min Rain = 0
KBI1 150047Z 17004KT 22/15 A2997 RMK A01 T02160149  RH  066%=      5-min Rain = 0
KBI1 150048Z 17004KT 22/15 A2997 RMK A01 T02160149  RH  066%=      5-min Rain = 0
KBI1 150049Z 17004KT 22/15 A2997 RMK A01 T02170150  RH  066%=      5-min Rain = 0
KBI1 150050Z 17004KT 22/15 A2997 RMK A01 T02160149  RH  066%=      5-min Rain = 0
KBI1 150051Z 17004KT 22/15 A2997 RMK A01 T02170149  RH  065%=      5-min Rain = 0
KBI1 150052Z 17004KT 22/15 A2997 RMK A01 T02160149  RH  066%=      5-min Rain = 0
KBI1 150053Z 17004KT 22/15 A2997 RMK A01 T02160150  RH  066%=      5-min Rain = 0
KBI1 150054Z 17004KT 22/15 A2997 RMK A01 T02150149  RH  066%=      5-min Rain = 0
KBI1 150055Z 17004KT 22/15 A2997 RMK A01 T02150149  RH  066%=      5-min Rain = 0
KBI1 150056Z 17004KT 22/15 A2997 RMK A01 T02150150  RH  066%=      5-min Rain = 0
KBI1 150057Z 17004KT 22/15 A2997 RMK A01 T02150150  RH  066%=      5-min Rain = 0
KBI1 150058Z 18004KT 21/15 A2997 RMK A01 T02140150  RH  067%=      5-min Rain = 0
KBI1 150059Z 18004KT 21/15 A2998 RMK A01 T02140150  RH  067%=      5-min Rain = 0
KBI1 150100Z 17004KT 21/15 A2998 RMK A01 T02140150  RH  067%=      5-min Rain = 0
KBI1 150101Z 17005KT 21/15 A2998 RMK A01 T02130151  RH  067%=      5-min Rain = 0
KBI1 150102Z 17005KT 21/15 A2998 RMK A01 T02130150  RH  067%=      5-min Rain = 0
KBI1 150103Z 17005KT 21/15 A2998 RMK A01 T02120150  RH  068%=      5-min Rain = 0
KBI1 150104Z 17005KT 21/15 A2998 RMK A01 T02110150  RH  068%=      5-min Rain = 0
KBI1 150105Z 17005KT 21/15 A2998 RMK A01 T02110150  RH  068%=      5-min Rain = 0
KBI1 150106Z 17005KT 21/15 A2998 RMK A01 T02100150  RH  068%=      5-min Rain = 0
KBI1 150107Z 17005KT 21/15 A2998 RMK A01 T02100150  RH  068%=      5-min Rain = 0
KBI1 150108Z 17006KT 21/15 A2998 RMK A01 T02100149  RH  068%=      5-min Rain = 0
KBI1 150109Z 16006KT 21/15 A2998 RMK A01 T02120149  RH  067%=      5-min Rain = 0
KBI1 150110Z 16006KT 21/15 A2998 RMK A01 T02130149  RH  067%=      5-min Rain = 0
KBI1 150111Z 16006KT 21/15 A2998 RMK A01 T02130149  RH  067%=      5-min Rain = 0
KBI1 150112Z 17006KT 21/15 A2998 RMK A01 T02140149  RH  066%=      5-min Rain = 0
KBI1 150113Z 17006KT 21/15 A2998 RMK A01 T02140149  RH  066%=      5-min Rain = 0
KBI1 150114Z 17006KT 21/15 A2998 RMK A01 T02140149  RH  066%=      5-min Rain = 0
KBI1 150115Z 17006KT 21/15 A2998 RMK A01 T02140149  RH  067%=      5-min Rain = 0
KBI1 150116Z 17006KT 21/15 A2998 RMK A01 T02130149  RH  067%=      5-min Rain = 0
KBI1 150117Z 17007KT 21/15 A2998 RMK A01 T02130149  RH  067%=      5-min Rain = 0
KBI1 150118Z 17007KT 21/15 A2998 RMK A01 T02120149  RH  067%=      5-min Rain = 0
KBI1 150119Z 17006KT 21/15 A2998 RMK A01 T02120149  RH  067%=      5-min Rain = 0
KBI1 150120Z 17006KT 21/15 A2998 RMK A01 T02120149  RH  067%=      5-min Rain = 0
KBI1 150121Z 17006KT 21/15 A2998 RMK A01 T02120149  RH  067%=      5-min Rain = 0
KBI1 150122Z 17006KT 21/15 A2998 RMK A01 T02120149  RH  067%=      5-min Rain = 0
KBI1 150123Z 17005KT 21/15 A2998 RMK A01 T02120148  RH  067%=      5-min Rain = 0
KBI1 150124Z 17005KT 21/15 A2998 RMK A01 T02110148  RH  067%=      5-min Rain = 0
KBI1 150125Z 17005KT 21/15 A2998 RMK A01 T02110148  RH  067%=      5-min Rain = 0
KBI1 150126Z 17005KT 21/15 A2998 RMK A01 T02110148  RH  067%=      5-min Rain = 0
KBI1 150127Z 17006KT 21/15 A2998 RMK A01 T02100148  RH  067%=      5-min Rain = 0
KBI1 150128Z 18006KT 21/15 A2998 RMK A01 T02100148  RH  068%=      5-min Rain = 0
KBI1 150129Z 18007KT 21/15 A2998 RMK A01 T02100148  RH  068%=      5-min Rain = 0
KBI1 150130Z 18006KT 21/15 A2999 RMK A01 T02080148  RH  068%=      5-min Rain = 0
KBI1 150131Z 18006KT 21/15 A2999 RMK A01 T02070148  RH  069%=      5-min Rain = 0
KBI1 150132Z 18006KT 21/15 A2999 RMK A01 T02070148  RH  069%=      5-min Rain = 0
KBI1 150133Z 18006KT 21/15 A2999 RMK A01 T02070147  RH  069%=      5-min Rain = 0
KBI1 150134Z 17005KT 21/15 A2999 RMK A01 T02070148  RH  069%=      5-min Rain = 0
KBI1 150135Z 17005KT 21/15 A2999 RMK A01 T02070148  RH  069%=      5-min Rain = 0
KBI1 150136Z 17005KT 21/15 A2999 RMK A01 T02070148  RH  069%=      5-min Rain = 0
KBI1 150137Z 17005KT 21/15 A2999 RMK A01 T02080148  RH  068%=      5-min Rain = 0
KBI1 150138Z 17005KT 21/15 A2999 RMK A01 T02080147  RH  068%=      5-min Rain = 0
KBI1 150139Z 17005KT 21/15 A2999 RMK A01 T02080148  RH  068%=      5-min Rain = 0
KBI1 150140Z 16005KT 21/15 A2998 RMK A01 T02080147  RH  068%=      5-min Rain = 0
KBI1 150141Z 16004KT 21/15 A2998 RMK A01 T02090147  RH  068%=      5-min Rain = 0
KBI1 150142Z 16004KT 21/15 A2998 RMK A01 T02090147  RH  068%=      5-min Rain = 0
KBI1 150143Z 16004KT 21/15 A2998 RMK A01 T02090147  RH  068%=      5-min Rain = 0
KBI1 150144Z 16004KT 21/15 A2998 RMK A01 T02090147  RH  068%=      5-min Rain = 0
KBI1 150145Z 16004KT 21/15 A2998 RMK A01 T02090147  RH  068%=      5-min Rain = 0
KBI1 150146Z 16004KT 21/15 A2998 RMK A01 T02090147  RH  068%=      5-min Rain = 0
KBI1 150147Z 16004KT 21/15 A2998 RMK A01 T02090148  RH  068%=      5-min Rain = 0
KBI1 150148Z 17004KT 21/15 A2998 RMK A01 T02090148  RH  068%=      5-min Rain = 0
KBI1 150149Z 17004KT 21/15 A2999 RMK A01 T02090148  RH  068%=      5-min Rain = 0
KBI1 150150Z 17005KT 21/15 A2999 RMK A01 T02090148  RH  068%=      5-min Rain = 0
KBI1 150151Z 17004KT 21/15 A2999 RMK A01 T02100148  RH  068%=      5-min Rain = 0
KBI1 150152Z 17005KT 21/15 A2999 RMK A01 T02100148  RH  068%=      5-min Rain = 0
KBI1 150153Z 17005KT 21/15 A2999 RMK A01 T02100148  RH  068%=      5-min Rain = 0
KBI1 150154Z 17005KT 21/15 A2999 RMK A01 T02100148  RH  068%=      5-min Rain = 0
KBI1 150155Z 17005KT 21/15 A2999 RMK A01 T02100148  RH  068%=      5-min Rain = 0
KBI1 150156Z 17005KT 21/15 A2999 RMK A01 T02100148  RH  068%=      5-min Rain = 0
KBI1 150157Z 17005KT 21/15 A2999 RMK A01 T02100148  RH  068%=      5-min Rain = 0
KBI1 150158Z 17005KT 21/15 A2999 RMK A01 T02090147  RH  068%=      5-min Rain = 0
KBI1 150159Z 17004KT 21/15 A2999 RMK A01 T02090148  RH  068%=      5-min Rain = 0
KBI1 150200Z 17005KT 21/15 A2999 RMK A01 T02090148  RH  068%=      5-min Rain = 0
KBI1 150201Z 17004KT 21/15 A2999 RMK A01 T02080148  RH  068%=      5-min Rain = 0
KBI1 150202Z 16005KT 21/15 A2999 RMK A01 T02080148  RH  068%=      5-min Rain = 0
KBI1 150203Z 16004KT 21/15 A2999 RMK A01 T02080148  RH  068%=      5-min Rain = 0
KBI1 150204Z 16005KT 21/15 A2999 RMK A01 T02080147  RH  068%=      5-min Rain = 0
KBI1 150205Z 16004KT 21/15 A2999 RMK A01 T02070147  RH  068%=      5-min Rain = 0
KBI1 150206Z 16005KT 21/15 A2999 RMK A01 T02080147  RH  068%=      5-min Rain = 0
KBI1 150207Z 15004KT 21/15 A2999 RMK A01 T02080147  RH  068%=      5-min Rain = 0
KBI1 150208Z 16004KT 21/15 A2999 RMK A01 T02080147  RH  068%=      5-min Rain = 0
KBI1 150209Z 16005KT 21/15 A2999 RMK A01 T02080147  RH  068%=      5-min Rain = 0
KBI1 150210Z 16004KT 21/15 A2999 RMK A01 T02080146  RH  068%=      5-min Rain = 0
KBI1 150211Z 16004KT 21/15 A2999 RMK A01 T02080146  RH  068%=      5-min Rain = 0
KBI1 150212Z 16004KT 21/15 A2999 RMK A01 T02080146  RH  068%=      5-min Rain = 0
KBI1 150213Z 16005KT 21/15 A2999 RMK A01 T02080146  RH  068%=      5-min Rain = 0
KBI1 150214Z 15005KT 21/15 A2999 RMK A01 T02080146  RH  068%=      5-min Rain = 0
KBI1 150215Z 15004KT 21/15 A2999 RMK A01 T02080146  RH  068%=      5-min Rain = 0
KBI1 150216Z 16004KT 21/15 A2999 RMK A01 T02080146  RH  068%=      5-min Rain = 0
KBI1 150217Z 16004KT 21/15 A2999 RMK A01 T02080146  RH  068%=      5-min Rain = 0
KBI1 150218Z 15004KT 21/15 A2999 RMK A01 T02080146  RH  068%=      5-min Rain = 0
KBI1 150219Z 15005KT 21/15 A2999 RMK A01 T02080146  RH  068%=      5-min Rain = 0
KBI1 150220Z 15004KT 21/15 A2999 RMK A01 T02080146  RH  068%=      5-min Rain = 0
KBI1 150221Z 15004KT 21/15 A2999 RMK A01 T02080146  RH  068%=      5-min Rain = 0
KBI1 150222Z 15004KT 21/15 A2999 RMK A01 T02080146  RH  068%=      5-min Rain = 0
KBI1 150223Z 15003KT 21/15 A2999 RMK A01 T02080146  RH  068%=      5-min Rain = 0
KBI1 150224Z 15004KT 21/15 A2999 RMK A01 T02080146  RH  068%=      5-min Rain = 0
KBI1 150225Z 15004KT 21/15 A2999 RMK A01 T02080146  RH  068%=      5-min Rain = 0
KBI1 150226Z 15004KT 21/15 A2999 RMK A01 T02070145  RH  068%=      5-min Rain = 0
KBI1 150227Z 15005KT 21/15 A2999 RMK A01 T02060145  RH  068%=      5-min Rain = 0
KBI1 150228Z 15004KT 21/15 A2999 RMK A01 T02050145  RH  068%=      5-min Rain = 0
KBI1 150229Z 15004KT 21/15 A2999 RMK A01 T02060145  RH  068%=      5-min Rain = 0
KBI1 150230Z 15004KT 21/15 A2999 RMK A01 T02060145  RH  068%=      5-min Rain = 0
KBI1 150231Z 15004KT 21/15 A2999 RMK A01 T02050145  RH  068%=      5-min Rain = 0
KBI1 150232Z 15004KT 21/15 A2999 RMK A01 T02050145  RH  068%=      5-min Rain = 0
KBI1 150233Z 15004KT 21/15 A2999 RMK A01 T02050145  RH  068%=      5-min Rain = 0
KBI1 150234Z 15004KT 21/15 A2999 RMK A01 T02050145  RH  068%=      5-min Rain = 0
KBI1 150235Z 15004KT 21/15 A2999 RMK A01 T02050145  RH  068%=      5-min Rain = 0
KBI1 150236Z 15004KT 21/15 A2999 RMK A01 T02050145  RH  068%=      5-min Rain = 0
KBI1 150237Z 14004KT 20/15 A2999 RMK A01 T02040145  RH  069%=      5-min Rain = 0
KBI1 150238Z 14004KT 20/15 A2999 RMK A01 T02040145  RH  069%=      5-min Rain = 0
KBI1 150239Z 14003KT 20/15 A2999 RMK A01 T02030145  RH  069%=      5-min Rain = 0
KBI1 150240Z 13004KT 20/15 A2999 RMK A01 T02030145  RH  069%=      5-min Rain = 0
KBI1 150241Z 13004KT 20/14 A2999 RMK A01 T02030144  RH  069%=      5-min Rain = 0
KBI1 150242Z 13004KT 20/14 A2999 RMK A01 T02020144  RH  069%=      5-min Rain = 0
KBI1 150243Z 14003KT 20/14 A2999 RMK A01 T02020144  RH  069%=      5-min Rain = 0
KBI1 150244Z 14003KT 20/14 A2999 RMK A01 T02020144  RH  069%=      5-min Rain = 0
KBI1 150245Z 15003KT 20/14 A2999 RMK A01 T02020144  RH  069%=      5-min Rain = 0
KBI1 150246Z 15003KT 20/14 A2999 RMK A01 T02020144  RH  069%=      5-min Rain = 0
KBI1 150247Z 14004KT 20/14 A2999 RMK A01 T02020143  RH  069%=      5-min Rain = 0
KBI1 150248Z 14004KT 20/14 A2999 RMK A01 T02020143  RH  069%=      5-min Rain = 0
KBI1 150249Z 14003KT 20/14 A2999 RMK A01 T02020144  RH  069%=      5-min Rain = 0
KBI1 150250Z 15004KT 20/14 A2999 RMK A01 T02020144  RH  069%=      5-min Rain = 0
KBI1 150251Z 15003KT 20/14 A2999 RMK A01 T02010143  RH  069%=      5-min Rain = 0
KBI1 150252Z 14004KT 20/14 A2999 RMK A01 T02010143  RH  069%=      5-min Rain = 0
KBI1 150253Z 14004KT 20/14 A2999 RMK A01 T02010143  RH  069%=      5-min Rain = 0
KBI1 150254Z 14004KT 20/14 A2999 RMK A01 T02010143  RH  069%=      5-min Rain = 0
KBI1 150255Z 14004KT 20/14 A2999 RMK A01 T02010143  RH  069%=      5-min Rain = 0
KBI1 150256Z 14003KT 20/14 A2999 RMK A01 T02010143  RH  069%=      5-min Rain = 0
KBI1 150257Z 14004KT 20/14 A2999 RMK A01 T02010143  RH  069%=      5-min Rain = 0
KBI1 150258Z 14004KT 20/14 A2999 RMK A01 T02010143  RH  069%=      5-min Rain = 0
KBI1 150259Z 14003KT 20/14 A2999 RMK A01 T02010143  RH  069%=      5-min Rain = 0
KBI1 150300Z 15003KT 20/14 A2999 RMK A01 T02010143  RH  069%=      5-min Rain = 0
KBI1 150301Z 15004KT 20/14 A2999 RMK A01 T02010143  RH  069%=      5-min Rain = 0
KBI1 150302Z 15004KT 20/14 A2999 RMK A01 T02000143  RH  069%=      5-min Rain = 0
KBI1 150303Z 15004KT 20/14 A2999 RMK A01 T02010143  RH  069%=      5-min Rain = 0
KBI1 150304Z 15005KT 20/14 A2999 RMK A01 T02000143  RH  069%=      5-min Rain = 0
KBI1 150305Z 15005KT 20/14 A2999 RMK A01 T02010143  RH  070%=      5-min Rain = 0
KBI1 150306Z 15005KT 20/14 A2999 RMK A01 T02000143  RH  070%=      5-min Rain = 0
KBI1 150307Z 15005KT 20/14 A2999 RMK A01 T02000143  RH  070%=      5-min Rain = 0
KBI1 150308Z 15005KT 20/14 A2999 RMK A01 T02000143  RH  070%=      5-min Rain = 0
KBI1 150309Z 16005KT 20/14 A2999 RMK A01 T02000143  RH  070%=      5-min Rain = 0
KBI1 150310Z 15005KT 20/14 A2999 RMK A01 T01990143  RH  070%=      5-min Rain = 0
KBI1 150311Z 15005KT 20/14 A2999 RMK A01 T02000143  RH  070%=      5-min Rain = 0
KBI1 150312Z 15004KT 20/14 A30 RMK A01 T01990142  RH  070%=      5-min Rain = 0
KBI1 150313Z 16005KT 20/14 A30 RMK A01 T01990142  RH  069%=      5-min Rain = 0
KBI1 150314Z 16005KT 20/14 A30 RMK A01 T02000142  RH  069%=      5-min Rain = 0
KBI1 150315Z 16005KT 20/14 A30 RMK A01 T02000142  RH  069%=      5-min Rain = 0
KBI1 150316Z 16004KT 20/14 A30 RMK A01 T02000142  RH  069%=      5-min Rain = 0
KBI1 150317Z 16004KT 20/14 A30 RMK A01 T02000142  RH  069%=      5-min Rain = 0
KBI1 150318Z 16004KT 20/14 A30 RMK A01 T02000142  RH  069%=      5-min Rain = 0
KBI1 150319Z 15005KT 20/14 A30 RMK A01 T01990142  RH  069%=      5-min Rain = 0
KBI1 150320Z 15004KT 20/14 A30 RMK A01 T01990142  RH  069%=      5-min Rain = 0
KBI1 150321Z 16005KT 20/14 A30 RMK A01 T01990142  RH  069%=      5-min Rain = 0
KBI1 150322Z 16004KT 20/14 A30 RMK A01 T01990142  RH  069%=      5-min Rain = 0
KBI1 150323Z 16005KT 20/14 A30 RMK A01 T01990142  RH  069%=      5-min Rain = 0
KBI1 150324Z 16004KT 20/14 A30 RMK A01 T01990142  RH  070%=      5-min Rain = 0
KBI1 150325Z 16005KT 20/14 A30 RMK A01 T01980142  RH  070%=      5-min Rain = 0
KBI1 150326Z 16004KT 20/14 A30 RMK A01 T01980142  RH  070%=      5-min Rain = 0
KBI1 150327Z 16005KT 20/14 A30 RMK A01 T01980142  RH  070%=      5-min Rain = 0
KBI1 150328Z 16005KT 20/14 A30 RMK A01 T01980142  RH  070%=      5-min Rain = 0
KBI1 150329Z 17005KT 20/14 A30 RMK A01 T01980142  RH  070%=      5-min Rain = 0
KBI1 150330Z 17005KT 20/14 A30 RMK A01 T01980142  RH  070%=      5-min Rain = 0
KBI1 150331Z 17005KT 20/14 A30 RMK A01 T01970142  RH  070%=      5-min Rain = 0
KBI1 150332Z 17005KT 20/14 A30 RMK A01 T01980142  RH  070%=      5-min Rain = 0
KBI1 150333Z 17005KT 20/14 A30 RMK A01 T01980142  RH  070%=      5-min Rain = 0
KBI1 150334Z 17005KT 20/14 A30 RMK A01 T01980142  RH  070%=      5-min Rain = 0
KBI1 150335Z 17006KT 20/14 A30 RMK A01 T01980142  RH  070%=      5-min Rain = 0
KBI1 150336Z 17005KT 20/14 A30 RMK A01 T01980142  RH  070%=      5-min Rain = 0
KBI1 150337Z 17005KT 20/14 A30 RMK A01 T01980142  RH  070%=      5-min Rain = 0
KBI1 150338Z 17005KT 20/14 A30 RMK A01 T01980142  RH  070%=      5-min Rain = 0
KBI1 150339Z 18005KT 20/14 A30 RMK A01 T01970142  RH  070%=      5-min Rain = 0
KBI1 150340Z 18005KT 20/14 A30 RMK A01 T01970142  RH  070%=      5-min Rain = 0
KBI1 150341Z 18005KT 20/14 A30 RMK A01 T01970142  RH  070%=      5-min Rain = 0
KBI1 150342Z 17005KT 20/14 A30 RMK A01 T01970142  RH  070%=      5-min Rain = 0
KBI1 150343Z 17005KT 20/14 A30 RMK A01 T01970142  RH  070%=      5-min Rain = 0
KBI1 150344Z 18005KT 20/14 A30 RMK A01 T01970142  RH  071%=      5-min Rain = 0
KBI1 150345Z 18006KT 20/14 A30 RMK A01 T01970142  RH  071%=      5-min Rain = 0
KBI1 150346Z 18005KT 20/14 A30 RMK A01 T01970143  RH  071%=      5-min Rain = 0
KBI1 150347Z 18006KT 20/14 A30 RMK A01 T01970142  RH  071%=      5-min Rain = 0
KBI1 150348Z 18006KT 20/14 A30 RMK A01 T01970142  RH  071%=      5-min Rain = 0
KBI1 150349Z 18006KT 20/14 A30 RMK A01 T01960142  RH  071%=      5-min Rain = 0
KBI1 150350Z 18006KT 20/14 A30 RMK A01 T01970142  RH  071%=      5-min Rain = 0
KBI1 150351Z 18006KT 20/14 A30 RMK A01 T01980142  RH  070%=      5-min Rain = 0
KBI1 150352Z 18006KT 20/14 A30 RMK A01 T01990143  RH  070%=      5-min Rain = 0
KBI1 150353Z 18006KT 20/14 A30 RMK A01 T01990142  RH  070%=      5-min Rain = 0
KBI1 150354Z 18007KT 20/14 A30 RMK A01 T02000142  RH  069%=      5-min Rain = 0
KBI1 150355Z 18006KT 20/14 A30 RMK A01 T02010142  RH  069%=      5-min Rain = 0
KBI1 150356Z 18006KT 20/14 A30 RMK A01 T02020142  RH  068%=      5-min Rain = 0
KBI1 150357Z 18007KT 20/14 A30 RMK A01 T02030142  RH  068%=      5-min Rain = 0
KBI1 150358Z 17008KT 20/14 A30 RMK A01 T02030143  RH  068%=      5-min Rain = 0
KBI1 150359Z 18007KT 20/14 A30 RMK A01 T02040142  RH  067%=      5-min Rain = 0
KBI1 150400Z 17008KT 21/14 A30 RMK A01 T02060143  RH  067%=      5-min Rain = 0
KBI1 150401Z 18007KT 21/14 A30 RMK A01 T02060142  RH  067%=      5-min Rain = 0
KBI1 150402Z 18008KT 21/14 A30 RMK A01 T02070143  RH  067%=      5-min Rain = 0
KBI1 150403Z 18008KT 21/14 A30 RMK A01 T02070142  RH  066%=      5-min Rain = 0
KBI1 150404Z 18008KT 21/14 A30 RMK A01 T02070142  RH  067%=      5-min Rain = 0
KBI1 150405Z 18008KT 21/14 A30 RMK A01 T02070142  RH  067%=      5-min Rain = 0
KBI1 150406Z 18009KT 21/14 A30 RMK A01 T02070142  RH  066%=      5-min Rain = 0
KBI1 150407Z 18009KT 21/14 A30 RMK A01 T02080142  RH  066%=      5-min Rain = 0
KBI1 150408Z 18008KT 21/14 A30 RMK A01 T02090143  RH  066%=      5-min Rain = 0
KBI1 150409Z 18008KT 21/14 A30 RMK A01 T02090143  RH  066%=      5-min Rain = 0
KBI1 150410Z 18007KT 21/14 A30 RMK A01 T02090143  RH  066%=      5-min Rain = 0
KBI1 150411Z 18007KT 21/14 A30 RMK A01 T02080143  RH  066%=      5-min Rain = 0
KBI1 150412Z 18009KT 21/14 A30 RMK A01 T02080143  RH  066%=      5-min Rain = 0
KBI1 150413Z 18008KT 21/14 A30 RMK A01 T02080143  RH  066%=      5-min Rain = 0
KBI1 150414Z 18007KT 21/14 A30 RMK A01 T02090143  RH  066%=      5-min Rain = 0
KBI1 150415Z 18009KT 21/14 A30 RMK A01 T02090143  RH  066%=      5-min Rain = 0
KBI1 150416Z 18008KT 21/14 A30 RMK A01 T02090143  RH  066%=      5-min Rain = 0
KBI1 150417Z 18007KT 21/14 A30 RMK A01 T02090143  RH  066%=      5-min Rain = 0
KBI1 150418Z 18007KT 21/14 A30 RMK A01 T02090143  RH  066%=      5-min Rain = 0
KBI1 150419Z 18008KT 21/14 A30 RMK A01 T02090143  RH  066%=      5-min Rain = 0
KBI1 150420Z 18007KT 21/14 A30 RMK A01 T02090143  RH  066%=      5-min Rain = 0
KBI1 150421Z 18008KT 21/14 A30 RMK A01 T02090143  RH  066%=      5-min Rain = 0
KBI1 150422Z 18007KT 21/14 A30 RMK A01 T02090143  RH  066%=      5-min Rain = 0
KBI1 150423Z 18007KT 21/14 A30 RMK A01 T02090144  RH  066%=      5-min Rain = 0
KBI1 150424Z 18007KT 21/14 A30 RMK A01 T02080143  RH  066%=      5-min Rain = 0
KBI1 150425Z 18007KT 21/14 A30 RMK A01 T02080144  RH  067%=      5-min Rain = 0
KBI1 150426Z 18007KT 21/14 A30 RMK A01 T02080143  RH  067%=      5-min Rain = 0
KBI1 150427Z 18007KT 21/14 A30 RMK A01 T02080143  RH  066%=      5-min Rain = 0
KBI1 150428Z 18007KT 21/14 A30 RMK A01 T02080143  RH  066%=      5-min Rain = 0
KBI1 150429Z 18007KT 21/14 A30 RMK A01 T02080144  RH  067%=      5-min Rain = 0
KBI1 150430Z 18007KT 21/14 A30 RMK A01 T02080143  RH  067%=      5-min Rain = 0
KBI1 150431Z 18007KT 21/14 A30 RMK A01 T02070143  RH  067%=      5-min Rain = 0
KBI1 150432Z 19006KT 21/14 A30 RMK A01 T02070144  RH  067%=      5-min Rain = 0
KBI1 150433Z 18006KT 21/14 A30 RMK A01 T02070144  RH  067%=      5-min Rain = 0
KBI1 150434Z 18006KT 21/14 A30 RMK A01 T02060143  RH  067%=      5-min Rain = 0
KBI1 150435Z 18006KT 21/14 A30 RMK A01 T02060143  RH  067%=      5-min Rain = 0
KBI1 150436Z 19007KT 21/14 A30 RMK A01 T02060144  RH  067%=      5-min Rain = 0
KBI1 150437Z 19006KT 21/14 A30 RMK A01 T02060143  RH  067%=      5-min Rain = 0
KBI1 150438Z 19007KT 21/14 A30 RMK A01 T02060144  RH  067%=      5-min Rain = 0
KBI1 150439Z 18006KT 21/14 A30 RMK A01 T02060144  RH  067%=      5-min Rain = 0
KBI1 150440Z 18006KT 21/14 A30 RMK A01 T02060144  RH  067%=      5-min Rain = 0
KBI1 150441Z 18006KT 21/14 A30 RMK A01 T02070144  RH  067%=      5-min Rain = 0
KBI1 150442Z 18006KT 21/14 A30 RMK A01 T02060144  RH  068%=      5-min Rain = 0
KBI1 150443Z 18006KT 21/14 A30 RMK A01 T02060144  RH  068%=      5-min Rain = 0
KBI1 150444Z 18006KT 21/14 A30 RMK A01 T02050144  RH  068%=      5-min Rain = 0
KBI1 150445Z 18005KT 21/14 A30 RMK A01 T02050144  RH  068%=      5-min Rain = 0
KBI1 150446Z 18006KT 20/14 A30 RMK A01 T02040144  RH  068%=      5-min Rain = 0
KBI1 150447Z 18005KT 20/14 A30 RMK A01 T02040144  RH  068%=      5-min Rain = 0
KBI1 150448Z 18006KT 20/14 A30 RMK A01 T02040144  RH  069%=      5-min Rain = 0
KBI1 150449Z 18005KT 20/14 A30 RMK A01 T02030144  RH  069%=      5-min Rain = 0
KBI1 150450Z 18005KT 20/14 A30 RMK A01 T02040144  RH  069%=      5-min Rain = 0
KBI1 150451Z 17006KT 20/15 A30 RMK A01 T02040145  RH  069%=      5-min Rain = 0
KBI1 150452Z 17005KT 20/14 A30 RMK A01 T02030144  RH  069%=      5-min Rain = 0
KBI1 150453Z 17004KT 20/14 A30 RMK A01 T02030144  RH  069%=      5-min Rain = 0
KBI1 150454Z 18005KT 20/14 A30 RMK A01 T02030144  RH  069%=      5-min Rain = 0
KBI1 150455Z 18005KT 20/14 A30 RMK A01 T02030144  RH  069%=      5-min Rain = 0
KBI1 150456Z 18004KT 20/14 A30 RMK A01 T02030144  RH  069%=      5-min Rain = 0
KBI1 150457Z 18005KT 20/15 A30 RMK A01 T02030145  RH  069%=      5-min Rain = 0
KBI1 150458Z 18005KT 20/15 A30 RMK A01 T02030145  RH  069%=      5-min Rain = 0
KBI1 150459Z 18005KT 20/14 A30 RMK A01 T02020144  RH  070%=      5-min Rain = 0

Page generated in 0.0714 seconds.